Time,TemperatureF,DewpointF,PressureIn,WindDirection,WindDirectionDegrees,WindSpeedMPH,WindSpeedGustMPH,Humidity,HourlyPrecipIn,Conditions,Clouds,dailyrainin,SoftwareType,DateUTC
2013-09-01 00:01:00,69.5,68.9,29.96,SSW,203,0.0,0.0,98,0.00,,,0.20,Wunderground v.1.15,2013-09-01 04:01:00,
2013-09-01 00:02:00,69.5,68.9,29.96,SSW,203,0.0,0.0,98,0.00,,,0.20,Wunderground v.1.15,2013-09-01 04:02:00,
2013-09-01 00:06:00,69.6,69.0,29.96,SSW,203,0.0,0.0,98,0.00,,,0.20,Wunderground v.1.15,2013-09-01 04:06:00,
2013-09-01 00:07:00,69.5,68.9,29.96,SSW,203,0.0,0.0,98,0.00,,,0.20,Wunderground v.1.15,2013-09-01 04:07:00,
2013-09-01 00:11:00,69.6,69.0,29.96,SSW,203,0.0,0.0,98,0.00,,,0.20,Wunderground v.1.15,2013-09-01 04:11:00,
2013-09-01 00:12:00,69.5,68.9,29.96,SSW,202,0.0,0.0,98,0.00,,,0.20,Wunderground v.1.15,2013-09-01 04:12:00,
2013-09-01 00:16:00,69.6,69.0,29.96,SSW,203,0.0,0.0,98,0.00,,,0.20,Wunderground v.1.15,2013-09-01 04:16:00,
2013-09-01 00:17:00,69.6,69.0,29.96,SSW,203,0.0,0.0,98,0.00,,,0.20,Wunderground v.1.15,2013-09-01 04:17:00,
2013-09-01 00:21:00,69.6,69.0,29.96,SSW,202,0.0,0.0,98,0.00,,,0.20,Wunderground v.1.15,2013-09-01 04:21:00,
2013-09-01 00:22:00,69.6,69.0,29.96,SSW,202,0.0,0.0,98,0.00,,,0.20,Wunderground v.1.15,2013-09-01 04:22:00,
2013-09-01 00:26:00,69.8,69.2,29.96,SSW,202,0.0,0.0,98,0.00,,,0.20,Wunderground v.1.15,2013-09-01 04:26:00,
2013-09-01 00:27:00,69.8,69.2,29.96,SSW,203,0.0,0.0,98,0.00,,,0.20,Wunderground v.1.15,2013-09-01 04:27:00,
2013-09-01 00:28:00,69.8,69.2,29.96,SSW,203,0.0,0.0,98,0.00,,,0.20,Wunderground v.1.15,2013-09-01 04:28:00,
2013-09-01 00:31:00,69.9,69.3,29.95,SSW,203,0.0,0.0,98,0.00,,,0.20,Wunderground v.1.15,2013-09-01 04:31:00,
2013-09-01 00:32:00,69.9,69.3,29.95,SSW,203,0.0,0.0,98,0.00,,,0.20,Wunderground v.1.15,2013-09-01 04:32:00,
2013-09-01 00:33:00,69.9,69.3,29.95,SSW,203,0.0,0.0,98,0.00,,,0.20,Wunderground v.1.15,2013-09-01 04:33:00,
2013-09-01 00:36:00,69.8,69.2,29.95,SSW,203,0.0,0.0,98,0.00,,,0.20,Wunderground v.1.15,2013-09-01 04:36:00,
2013-09-01 00:37:00,69.8,69.2,29.95,SSW,203,0.0,0.0,98,0.00,,,0.20,Wunderground v.1.15,2013-09-01 04:37:00,
2013-09-01 00:38:00,69.7,69.1,29.95,SSW,202,0.0,0.0,98,0.00,,,0.20,Wunderground v.1.15,2013-09-01 04:38:00,
2013-09-01 00:39:00,69.7,69.1,29.95,SSW,203,0.0,0.0,98,0.00,,,0.20,Wunderground v.1.15,2013-09-01 04:39:00,
2013-09-01 00:41:00,69.7,69.1,29.95,SSW,203,0.0,0.0,98,0.00,,,0.20,Wunderground v.1.15,2013-09-01 04:41:00,
2013-09-01 00:42:00,69.7,69.1,29.95,SSW,202,0.0,0.0,98,0.00,,,0.20,Wunderground v.1.15,2013-09-01 04:42:00,
2013-09-01 00:43:00,69.6,69.0,29.95,SSW,203,0.0,0.0,98,0.00,,,0.20,Wunderground v.1.15,2013-09-01 04:43:00,
2013-09-01 00:44:00,69.6,69.0,29.95,SSW,202,0.0,0.0,98,0.00,,,0.20,Wunderground v.1.15,2013-09-01 04:44:00,
2013-09-01 00:45:00,69.5,68.9,29.95,SSW,202,0.0,0.0,98,0.00,,,0.20,Wunderground v.1.15,2013-09-01 04:45:00,
2013-09-01 00:46:00,69.5,68.9,29.95,SSW,203,0.0,0.0,98,0.00,,,0.20,Wunderground v.1.15,2013-09-01 04:46:00,
2013-09-01 00:47:00,69.5,68.9,29.95,SSW,202,0.0,0.0,98,0.00,,,0.20,Wunderground v.1.15,2013-09-01 04:47:00,
2013-09-01 00:48:00,69.4,68.8,29.95,SSW,203,0.0,0.0,98,0.00,,,0.20,Wunderground v.1.15,2013-09-01 04:48:00,
2013-09-01 00:49:00,69.5,68.9,29.95,SSW,203,0.0,0.0,98,0.00,,,0.20,Wunderground v.1.15,2013-09-01 04:49:00,
2013-09-01 00:51:00,69.5,68.9,29.94,SSW,203,0.0,0.0,98,0.00,,,0.20,Wunderground v.1.15,2013-09-01 04:51:00,
2013-09-01 00:52:00,69.5,68.9,29.95,SSW,203,0.0,0.0,98,0.00,,,0.20,Wunderground v.1.15,2013-09-01 04:52:00,
2013-09-01 00:54:00,69.5,68.9,29.95,SSW,203,0.0,0.0,98,0.00,,,0.20,Wunderground v.1.15,2013-09-01 04:54:00,
2013-09-01 00:55:00,69.5,68.9,29.95,SSW,203,0.0,0.0,98,0.00,,,0.20,Wunderground v.1.15,2013-09-01 04:55:00,
2013-09-01 00:56:00,69.5,68.9,29.95,SSW,203,0.0,0.0,98,0.00,,,0.20,Wunderground v.1.15,2013-09-01 04:56:00,
2013-09-01 00:57:00,69.5,68.9,29.95,SSW,203,0.0,0.0,98,0.00,,,0.20,Wunderground v.1.15,2013-09-01 04:57:00,
2013-09-01 00:59:00,69.4,68.8,29.95,SSW,203,0.0,0.0,98,0.00,,,0.20,Wunderground v.1.15,2013-09-01 04:59:00,
2013-09-01 01:00:00,69.4,68.8,29.95,SSW,203,0.0,0.0,98,0.00,,,0.20,Wunderground v.1.15,2013-09-01 05:00:00,
2013-09-01 01:01:00,69.4,68.8,29.95,SSW,203,0.0,0.0,98,0.00,,,0.00,Wunderground v.1.15,2013-09-01 05:01:00,
2013-09-01 01:02:00,69.4,68.8,29.95,SSW,203,0.0,0.0,98,0.00,,,0.00,Wunderground v.1.15,2013-09-01 05:02:00,
2013-09-01 01:04:00,69.4,68.8,29.95,SSW,202,0.0,0.0,98,0.00,,,0.00,Wunderground v.1.15,2013-09-01 05:04:00,
2013-09-01 01:05:00,69.4,68.8,29.95,SSW,203,0.0,0.0,98,0.00,,,0.00,Wunderground v.1.15,2013-09-01 05:05:00,
2013-09-01 01:06:00,69.4,68.8,29.95,SSW,203,0.0,0.0,98,0.00,,,0.00,Wunderground v.1.15,2013-09-01 05:06:00,
2013-09-01 01:07:00,69.4,68.8,29.95,SSW,202,0.0,0.0,98,0.00,,,0.00,Wunderground v.1.15,2013-09-01 05:07:00,
2013-09-01 01:08:00,69.4,68.8,29.95,SSW,203,0.0,0.0,98,0.00,,,0.00,Wunderground v.1.15,2013-09-01 05:08:00,
2013-09-01 01:10:00,69.4,68.8,29.95,SSW,203,0.0,0.0,98,0.00,,,0.00,Wunderground v.1.15,2013-09-01 05:10:00,
2013-09-01 01:11:00,69.4,68.8,29.95,SSW,203,0.0,0.0,98,0.00,,,0.00,Wunderground v.1.15,2013-09-01 05:11:00,
2013-09-01 01:12:00,69.4,68.8,29.95,SSW,203,0.0,0.0,98,0.00,,,0.00,Wunderground v.1.15,2013-09-01 05:12:00,
2013-09-01 01:13:00,69.4,68.8,29.95,SSW,202,0.0,0.0,98,0.00,,,0.00,Wunderground v.1.15,2013-09-01 05:13:00,
2013-09-01 01:15:00,69.4,68.8,29.95,SSW,203,0.0,0.0,98,0.00,,,0.00,Wunderground v.1.15,2013-09-01 05:15:00,
2013-09-01 01:16:00,69.4,68.8,29.95,SSW,203,0.0,0.0,98,0.00,,,0.00,Wunderground v.1.15,2013-09-01 05:16:00,
2013-09-01 01:17:00,69.4,68.8,29.95,SSW,203,0.0,0.0,98,0.00,,,0.00,Wunderground v.1.15,2013-09-01 05:17:00,
2013-09-01 01:18:00,69.4,68.8,29.95,SSW,203,0.0,0.0,98,0.00,,,0.00,Wunderground v.1.15,2013-09-01 05:18:00,
2013-09-01 01:19:00,69.4,68.8,29.95,SSW,202,0.0,0.0,98,0.00,,,0.00,Wunderground v.1.15,2013-09-01 05:19:00,
2013-09-01 01:20:00,69.4,68.8,29.95,SSW,203,0.0,0.0,98,0.00,,,0.00,Wunderground v.1.15,2013-09-01 05:20:00,
2013-09-01 01:21:00,69.4,68.8,29.95,SSW,203,0.0,0.0,98,0.00,,,0.00,Wunderground v.1.15,2013-09-01 05:21:00,
2013-09-01 01:22:00,69.4,68.8,29.95,SSW,203,0.0,0.0,98,0.00,,,0.00,Wunderground v.1.15,2013-09-01 05:22:00,
2013-09-01 01:23:00,69.5,68.9,29.95,SSW,203,0.0,0.0,98,0.00,,,0.00,Wunderground v.1.15,2013-09-01 05:23:00,
2013-09-01 01:24:00,69.5,68.9,29.95,SSW,203,0.0,0.0,98,0.00,,,0.00,Wunderground v.1.15,2013-09-01 05:24:00,
2013-09-01 01:26:00,69.5,68.9,29.95,SSW,203,0.0,0.0,98,0.00,,,0.00,Wunderground v.1.15,2013-09-01 05:26:00,
2013-09-01 01:27:00,69.5,68.9,29.95,SSW,203,0.0,0.0,98,0.00,,,0.00,Wunderground v.1.15,2013-09-01 05:27:00,
2013-09-01 01:28:00,69.5,68.9,29.95,SSW,203,0.0,0.0,98,0.00,,,0.00,Wunderground v.1.15,2013-09-01 05:28:00,
2013-09-01 01:29:00,69.5,68.9,29.95,SSW,203,0.0,0.0,98,0.00,,,0.00,Wunderground v.1.15,2013-09-01 05:29:00,
2013-09-01 01:31:00,69.6,69.0,29.95,SSW,203,0.0,1.0,98,0.00,,,0.00,Wunderground v.1.15,2013-09-01 05:31:00,
2013-09-01 01:32:00,69.6,69.0,29.95,SSW,203,0.0,1.0,98,0.00,,,0.00,Wunderground v.1.15,2013-09-01 05:32:00,
2013-09-01 01:33:00,69.6,69.0,29.95,SSW,203,0.0,1.0,98,0.00,,,0.00,Wunderground v.1.15,2013-09-01 05:33:00,
2013-09-01 01:34:00,69.6,69.0,29.95,SSW,202,0.0,1.0,98,0.00,,,0.00,Wunderground v.1.15,2013-09-01 05:34:00,
2013-09-01 01:36:00,69.6,69.0,29.94,SSW,201,0.0,1.0,98,0.00,,,0.00,Wunderground v.1.15,2013-09-01 05:36:00,
2013-09-01 01:38:00,69.6,69.0,29.94,SSW,202,0.0,1.0,98,0.00,,,0.00,Wunderground v.1.15,2013-09-01 05:38:00,
2013-09-01 01:39:00,69.6,69.0,29.94,SSW,202,0.0,1.0,98,0.00,,,0.00,Wunderground v.1.15,2013-09-01 05:39:00,
2013-09-01 01:40:00,69.6,69.0,29.94,SSW,203,0.0,0.0,98,0.00,,,0.00,Wunderground v.1.15,2013-09-01 05:40:00,
2013-09-01 01:41:00,69.6,69.0,29.94,SSW,202,0.0,0.0,98,0.00,,,0.00,Wunderground v.1.15,2013-09-01 05:41:00,
2013-09-01 01:43:00,69.7,69.1,29.94,SSW,203,0.0,0.0,98,0.00,,,0.00,Wunderground v.1.15,2013-09-01 05:43:00,
2013-09-01 01:45:00,69.6,69.0,29.94,SSW,202,0.0,0.0,98,0.00,,,0.00,Wunderground v.1.15,2013-09-01 05:45:00,
2013-09-01 01:46:00,69.6,69.0,29.94,SSW,202,0.0,0.0,98,0.00,,,0.00,Wunderground v.1.15,2013-09-01 05:46:00,
2013-09-01 01:48:00,69.5,68.9,29.94,SSW,203,0.0,0.0,98,0.00,,,0.00,Wunderground v.1.15,2013-09-01 05:48:00,
2013-09-01 01:49:00,69.6,69.0,29.94,SSW,203,0.0,0.0,98,0.00,,,0.00,Wunderground v.1.15,2013-09-01 05:49:00,
2013-09-01 01:51:00,69.5,68.9,29.94,SSW,203,0.0,0.0,98,0.00,,,0.00,Wunderground v.1.15,2013-09-01 05:51:00,
2013-09-01 01:53:00,69.4,68.8,29.94,SSW,203,0.0,0.0,98,0.00,,,0.00,Wunderground v.1.15,2013-09-01 05:53:00,
2013-09-01 01:54:00,69.4,68.8,29.94,SSW,202,0.0,0.0,98,0.00,,,0.00,Wunderground v.1.15,2013-09-01 05:54:00,
2013-09-01 01:56:00,69.3,68.7,29.94,SSW,202,0.0,0.0,98,0.00,,,0.00,Wunderground v.1.15,2013-09-01 05:56:00,
2013-09-01 01:57:00,69.3,68.7,29.94,SSW,202,0.0,0.0,98,0.00,,,0.00,Wunderground v.1.15,2013-09-01 05:57:00,
2013-09-01 01:58:00,69.3,68.7,29.94,SSW,203,0.0,0.0,98,0.00,,,0.00,Wunderground v.1.15,2013-09-01 05:58:00,
2013-09-01 01:59:00,69.3,68.7,29.93,SSW,203,0.0,0.0,98,0.00,,,0.00,Wunderground v.1.15,2013-09-01 05:59:00,
2013-09-01 02:00:00,69.3,68.7,29.94,SSW,203,0.0,0.0,98,0.00,,,0.00,Wunderground v.1.15,2013-09-01 06:00:00,
2013-09-01 02:01:00,69.2,68.6,29.94,SSW,202,0.0,0.0,98,0.00,,,0.00,Wunderground v.1.15,2013-09-01 06:01:00,
2013-09-01 02:02:00,69.2,68.6,29.94,SSW,203,0.0,0.0,98,0.00,,,0.00,Wunderground v.1.15,2013-09-01 06:02:00,
2013-09-01 02:03:00,69.2,68.6,29.94,SSW,203,0.0,0.0,98,0.00,,,0.00,Wunderground v.1.15,2013-09-01 06:03:00,
2013-09-01 02:04:00,69.2,68.6,29.94,SSW,202,0.0,0.0,98,0.00,,,0.00,Wunderground v.1.15,2013-09-01 06:04:00,
2013-09-01 02:06:00,69.1,68.5,29.94,SSW,203,0.0,0.0,98,0.00,,,0.00,Wunderground v.1.15,2013-09-01 06:06:00,
2013-09-01 02:07:00,69.1,68.5,29.93,SSW,203,0.0,0.0,98,0.00,,,0.00,Wunderground v.1.15,2013-09-01 06:07:00,
2013-09-01 02:08:00,69.1,68.5,29.93,SSW,203,0.0,0.0,98,0.00,,,0.00,Wunderground v.1.15,2013-09-01 06:08:00,
2013-09-01 02:09:00,69.1,68.5,29.93,SSW,203,0.0,0.0,98,0.00,,,0.00,Wunderground v.1.15,2013-09-01 06:09:00,
2013-09-01 02:11:00,69.1,68.5,29.94,SSW,203,0.0,0.0,98,0.00,,,0.00,Wunderground v.1.15,2013-09-01 06:11:00,
2013-09-01 02:12:00,69.1,68.5,29.94,SSW,203,0.0,0.0,98,0.00,,,0.00,Wunderground v.1.15,2013-09-01 06:12:00,
2013-09-01 02:13:00,69.1,68.5,29.94,SSW,203,0.0,0.0,98,0.00,,,0.00,Wunderground v.1.15,2013-09-01 06:13:00,
2013-09-01 02:14:00,69.1,68.5,29.93,SSW,202,0.0,0.0,98,0.00,,,0.00,Wunderground v.1.15,2013-09-01 06:14:00,
2013-09-01 02:17:00,69.0,68.4,29.93,SSW,203,1.0,1.0,98,0.00,,,0.00,Wunderground v.1.15,2013-09-01 06:17:00,
2013-09-01 02:18:00,69.0,68.4,29.93,SSW,203,0.0,1.0,98,0.00,,,0.00,Wunderground v.1.15,2013-09-01 06:18:00,
2013-09-01 02:19:00,69.0,68.4,29.93,SSW,203,0.0,1.0,98,0.00,,,0.00,Wunderground v.1.15,2013-09-01 06:19:00,
2013-09-01 02:22:00,69.0,68.4,29.93,SSW,203,0.0,0.0,98,0.00,,,0.00,Wunderground v.1.15,2013-09-01 06:22:00,
2013-09-01 02:23:00,69.0,68.4,29.93,SSW,202,0.0,0.0,98,0.00,,,0.00,Wunderground v.1.15,2013-09-01 06:23:00,
2013-09-01 02:24:00,69.0,68.4,29.93,SSW,203,0.0,0.0,98,0.00,,,0.00,Wunderground v.1.15,2013-09-01 06:24:00,
2013-09-01 02:26:00,68.9,68.3,29.93,SSW,203,0.0,0.0,98,0.00,,,0.00,Wunderground v.1.15,2013-09-01 06:26:00,
2013-09-01 02:27:00,68.9,68.3,29.93,SSW,203,0.0,0.0,98,0.00,,,0.00,Wunderground v.1.15,2013-09-01 06:27:00,
2013-09-01 02:28:00,69.0,68.4,29.93,SSW,203,0.0,0.0,98,0.00,,,0.00,Wunderground v.1.15,2013-09-01 06:28:00,
2013-09-01 02:29:00,68.9,68.3,29.93,SSW,203,0.0,0.0,98,0.00,,,0.00,Wunderground v.1.15,2013-09-01 06:29:00,
2013-09-01 02:30:00,68.9,68.3,29.93,SSW,203,0.0,0.0,98,0.00,,,0.00,Wunderground v.1.15,2013-09-01 06:30:00,
2013-09-01 02:32:00,68.8,68.2,29.93,SSW,203,0.0,0.0,98,0.00,,,0.00,Wunderground v.1.15,2013-09-01 06:32:00,
2013-09-01 02:33:00,68.8,68.2,29.93,SSW,203,0.0,0.0,98,0.00,,,0.00,Wunderground v.1.15,2013-09-01 06:33:00,
2013-09-01 02:35:00,68.9,68.3,29.93,SSW,203,0.0,1.0,98,0.00,,,0.00,Wunderground v.1.15,2013-09-01 06:35:00,
2013-09-01 02:36:00,68.9,68.3,29.93,SSW,203,0.0,1.0,98,0.00,,,0.00,Wunderground v.1.15,2013-09-01 06:36:00,
2013-09-01 02:37:00,68.9,68.3,29.93,SSW,203,0.0,1.0,98,0.00,,,0.00,Wunderground v.1.15,2013-09-01 06:37:00,
2013-09-01 02:38:00,68.9,68.3,29.93,SSW,203,0.0,1.0,98,0.00,,,0.00,Wunderground v.1.15,2013-09-01 06:38:00,
2013-09-01 02:40:00,68.9,68.3,29.93,SSW,203,0.0,0.0,98,0.00,,,0.00,Wunderground v.1.15,2013-09-01 06:40:00,
2013-09-01 02:41:00,68.9,68.3,29.93,SSW,203,0.0,0.0,98,0.00,,,0.00,Wunderground v.1.15,2013-09-01 06:41:00,
2013-09-01 02:42:00,68.8,68.2,29.93,SSW,203,0.0,0.0,98,0.00,,,0.00,Wunderground v.1.15,2013-09-01 06:42:00,
2013-09-01 02:43:00,68.8,68.2,29.93,SSW,203,0.0,0.0,98,0.00,,,0.00,Wunderground v.1.15,2013-09-01 06:43:00,
2013-09-01 02:45:00,68.8,68.2,29.93,SSW,202,0.0,0.0,98,0.00,,,0.00,Wunderground v.1.15,2013-09-01 06:45:00,
2013-09-01 02:46:00,68.7,68.1,29.93,SSW,203,0.0,0.0,98,0.00,,,0.00,Wunderground v.1.15,2013-09-01 06:46:00,
2013-09-01 02:47:00,68.7,68.1,29.93,SSW,203,0.0,0.0,98,0.00,,,0.00,Wunderground v.1.15,2013-09-01 06:47:00,
2013-09-01 02:48:00,68.7,68.1,29.93,SSW,202,0.0,0.0,98,0.00,,,0.00,Wunderground v.1.15,2013-09-01 06:48:00,
2013-09-01 02:50:00,68.7,68.1,29.93,SSW,203,0.0,0.0,98,0.00,,,0.00,Wunderground v.1.15,2013-09-01 06:50:00,
2013-09-01 02:51:00,68.6,68.0,29.93,SSW,203,0.0,0.0,98,0.00,,,0.00,Wunderground v.1.15,2013-09-01 06:51:00,
2013-09-01 02:52:00,68.6,68.0,29.93,SSW,203,0.0,0.0,98,0.00,,,0.00,Wunderground v.1.15,2013-09-01 06:52:00,
2013-09-01 02:53:00,68.6,68.0,29.93,SSW,202,0.0,0.0,98,0.00,,,0.00,Wunderground v.1.15,2013-09-01 06:53:00,
2013-09-01 02:55:00,68.5,67.9,29.93,SSW,203,0.0,0.0,98,0.00,,,0.00,Wunderground v.1.15,2013-09-01 06:55:00,
2013-09-01 02:56:00,68.5,67.9,29.93,SSW,203,0.0,0.0,98,0.00,,,0.00,Wunderground v.1.15,2013-09-01 06:56:00,
2013-09-01 02:57:00,68.5,67.9,29.93,SSW,203,0.0,0.0,98,0.00,,,0.00,Wunderground v.1.15,2013-09-01 06:57:00,
2013-09-01 02:58:00,68.5,67.9,29.93,SSW,203,0.0,0.0,98,0.00,,,0.00,Wunderground v.1.15,2013-09-01 06:58:00,
2013-09-01 02:59:00,68.5,67.9,29.93,SSW,203,0.0,0.0,98,0.00,,,0.00,Wunderground v.1.15,2013-09-01 06:59:00,
2013-09-01 03:00:00,68.5,67.9,29.93,SSW,203,0.0,0.0,98,0.00,,,0.00,Wunderground v.1.15,2013-09-01 07:00:00,
2013-09-01 03:01:00,68.5,67.9,29.92,SSW,202,0.0,0.0,98,0.00,,,0.00,Wunderground v.1.15,2013-09-01 07:01:00,
2013-09-01 03:02:00,68.5,67.9,29.92,SSW,203,0.0,0.0,98,0.00,,,0.00,Wunderground v.1.15,2013-09-01 07:02:00,
2013-09-01 03:03:00,68.5,67.9,29.92,SSW,203,0.0,0.0,98,0.00,,,0.00,Wunderground v.1.15,2013-09-01 07:03:00,
2013-09-01 03:04:00,68.5,67.9,29.92,SSW,203,0.0,0.0,98,0.00,,,0.00,Wunderground v.1.15,2013-09-01 07:04:00,
2013-09-01 03:05:00,68.5,67.9,29.92,SSW,203,0.0,0.0,98,0.00,,,0.00,Wunderground v.1.15,2013-09-01 07:05:00,
2013-09-01 03:07:00,68.5,67.9,29.92,SSW,203,0.0,0.0,98,0.00,,,0.00,Wunderground v.1.15,2013-09-01 07:07:00,
2013-09-01 03:08:00,68.5,68.2,29.92,SSW,203,0.0,0.0,99,0.00,,,0.00,Wunderground v.1.15,2013-09-01 07:08:00,
2013-09-01 03:09:00,68.5,68.2,29.92,SSW,203,0.0,0.0,99,0.00,,,0.00,Wunderground v.1.15,2013-09-01 07:09:00,
2013-09-01 03:10:00,68.5,68.2,29.92,SSW,203,0.0,0.0,99,0.00,,,0.00,Wunderground v.1.15,2013-09-01 07:10:00,
2013-09-01 03:12:00,68.5,68.2,29.92,SSW,203,0.0,0.0,99,0.00,,,0.00,Wunderground v.1.15,2013-09-01 07:12:00,
2013-09-01 03:14:00,68.4,67.8,29.92,SSW,203,0.0,0.0,98,0.00,,,0.00,Wunderground v.1.15,2013-09-01 07:14:00,
2013-09-01 03:15:00,68.4,67.8,29.93,SSW,203,0.0,0.0,98,0.00,,,0.00,Wunderground v.1.15,2013-09-01 07:15:00,
2013-09-01 03:17:00,68.4,67.8,29.93,SSW,203,0.0,0.0,98,0.00,,,0.00,Wunderground v.1.15,2013-09-01 07:17:00,
2013-09-01 03:19:00,68.5,67.9,29.93,SSW,202,0.0,0.0,98,0.00,,,0.00,Wunderground v.1.15,2013-09-01 07:19:00,
2013-09-01 03:20:00,68.4,68.1,29.93,SSW,203,0.0,0.0,99,0.00,,,0.00,Wunderground v.1.15,2013-09-01 07:20:00,
2013-09-01 03:22:00,68.5,68.2,29.93,SSW,202,0.0,0.0,99,0.00,,,0.00,Wunderground v.1.15,2013-09-01 07:22:00,
2013-09-01 03:24:00,68.4,68.1,29.92,SSW,203,0.0,0.0,99,0.00,,,0.00,Wunderground v.1.15,2013-09-01 07:24:00,
2013-09-01 03:25:00,68.4,68.1,29.92,SSW,202,0.0,0.0,99,0.00,,,0.00,Wunderground v.1.15,2013-09-01 07:25:00,
2013-09-01 03:27:00,68.4,68.1,29.92,SSW,203,0.0,0.0,99,0.00,,,0.00,Wunderground v.1.15,2013-09-01 07:27:00,
2013-09-01 03:28:00,68.4,68.1,29.92,SSW,202,0.0,0.0,99,0.00,,,0.00,Wunderground v.1.15,2013-09-01 07:28:00,
2013-09-01 03:29:00,68.4,68.1,29.92,SSW,203,0.0,0.0,99,0.00,,,0.00,Wunderground v.1.15,2013-09-01 07:29:00,
2013-09-01 03:30:00,68.3,68.0,29.92,SSW,203,0.0,0.0,99,0.00,,,0.00,Wunderground v.1.15,2013-09-01 07:30:00,
2013-09-01 03:31:00,68.4,68.1,29.92,SSW,203,0.0,0.0,99,0.00,,,0.00,Wunderground v.1.15,2013-09-01 07:31:00,
2013-09-01 03:32:00,68.4,68.1,29.92,SSW,203,0.0,0.0,99,0.00,,,0.00,Wunderground v.1.15,2013-09-01 07:32:00,
2013-09-01 03:33:00,68.4,68.1,29.92,SSW,203,0.0,0.0,99,0.00,,,0.00,Wunderground v.1.15,2013-09-01 07:33:00,
2013-09-01 03:34:00,68.4,68.1,29.92,SSW,203,0.0,0.0,99,0.00,,,0.00,Wunderground v.1.15,2013-09-01 07:34:00,
2013-09-01 03:35:00,68.4,68.1,29.92,SSW,203,0.0,0.0,99,0.00,,,0.00,Wunderground v.1.15,2013-09-01 07:35:00,
2013-09-01 03:36:00,68.4,68.1,29.92,SSW,203,0.0,0.0,99,0.00,,,0.00,Wunderground v.1.15,2013-09-01 07:36:00,
2013-09-01 03:37:00,68.3,68.0,29.92,SSW,203,0.0,0.0,99,0.00,,,0.00,Wunderground v.1.15,2013-09-01 07:37:00,
2013-09-01 03:38:00,68.3,68.0,29.92,SSW,203,0.0,0.0,99,0.00,,,0.00,Wunderground v.1.15,2013-09-01 07:38:00,
2013-09-01 03:39:00,68.3,68.0,29.92,SSW,203,0.0,0.0,99,0.00,,,0.00,Wunderground v.1.15,2013-09-01 07:39:00,
2013-09-01 03:40:00,68.3,68.0,29.92,SSW,203,0.0,0.0,99,0.00,,,0.00,Wunderground v.1.15,2013-09-01 07:40:00,
2013-09-01 03:41:00,68.3,68.0,29.92,SSW,203,0.0,0.0,99,0.00,,,0.00,Wunderground v.1.15,2013-09-01 07:41:00,
2013-09-01 03:42:00,68.3,68.0,29.92,SSW,202,0.0,0.0,99,0.00,,,0.00,Wunderground v.1.15,2013-09-01 07:42:00,
2013-09-01 03:43:00,68.3,68.0,29.92,SSW,203,0.0,0.0,99,0.00,,,0.00,Wunderground v.1.15,2013-09-01 07:43:00,
2013-09-01 03:44:00,68.3,68.0,29.92,SSW,203,0.0,0.0,99,0.00,,,0.00,Wunderground v.1.15,2013-09-01 07:44:00,
2013-09-01 03:45:00,68.3,68.0,29.93,SSW,202,0.0,0.0,99,0.00,,,0.00,Wunderground v.1.15,2013-09-01 07:45:00,
2013-09-01 03:46:00,68.2,67.9,29.92,SSW,203,0.0,0.0,99,0.00,,,0.00,Wunderground v.1.15,2013-09-01 07:46:00,
2013-09-01 03:47:00,68.2,67.9,29.93,SSW,203,0.0,0.0,99,0.00,,,0.00,Wunderground v.1.15,2013-09-01 07:47:00,
2013-09-01 03:48:00,68.2,67.9,29.93,SSW,203,0.0,0.0,99,0.00,,,0.00,Wunderground v.1.15,2013-09-01 07:48:00,
2013-09-01 03:49:00,68.2,67.9,29.93,SSW,203,0.0,0.0,99,0.00,,,0.00,Wunderground v.1.15,2013-09-01 07:49:00,
2013-09-01 03:50:00,68.2,67.9,29.93,SSW,203,0.0,0.0,99,0.00,,,0.00,Wunderground v.1.15,2013-09-01 07:50:00,
2013-09-01 03:51:00,68.3,68.0,29.93,SSW,203,0.0,0.0,99,0.00,,,0.00,Wunderground v.1.15,2013-09-01 07:51:00,
2013-09-01 03:52:00,68.3,68.0,29.93,SSW,203,0.0,0.0,99,0.00,,,0.00,Wunderground v.1.15,2013-09-01 07:52:00,
2013-09-01 03:53:00,68.4,68.1,29.93,SSW,203,0.0,0.0,99,0.00,,,0.00,Wunderground v.1.15,2013-09-01 07:53:00,
2013-09-01 03:54:00,68.4,68.1,29.93,SSW,202,0.0,0.0,99,0.00,,,0.00,Wunderground v.1.15,2013-09-01 07:54:00,
2013-09-01 03:55:00,68.5,68.2,29.93,SSW,202,0.0,0.0,99,0.00,,,0.00,Wunderground v.1.15,2013-09-01 07:55:00,
2013-09-01 03:56:00,68.6,68.3,29.93,SSW,207,0.0,0.0,99,0.00,,,0.00,Wunderground v.1.15,2013-09-01 07:56:00,
2013-09-01 03:57:00,68.7,68.4,29.93,SW,229,0.0,0.0,99,0.00,,,0.00,Wunderground v.1.15,2013-09-01 07:57:00,
2013-09-01 03:58:00,68.8,68.5,29.93,SW,229,0.0,0.0,99,0.00,,,0.00,Wunderground v.1.15,2013-09-01 07:58:00,
2013-09-01 03:59:00,68.8,68.5,29.93,SW,229,0.0,0.0,99,0.00,,,0.00,Wunderground v.1.15,2013-09-01 07:59:00,
2013-09-01 04:00:00,68.8,68.5,29.93,SW,229,0.0,0.0,99,0.00,,,0.00,Wunderground v.1.15,2013-09-01 08:00:00,
2013-09-01 04:01:00,68.9,68.6,29.93,SW,229,0.0,0.0,99,0.00,,,0.00,Wunderground v.1.15,2013-09-01 08:01:00,
2013-09-01 04:02:00,68.9,68.6,29.93,SW,229,0.0,0.0,99,0.00,,,0.00,Wunderground v.1.15,2013-09-01 08:02:00,
2013-09-01 04:04:00,69.0,68.7,29.93,SW,229,0.0,0.0,99,0.00,,,0.00,Wunderground v.1.15,2013-09-01 08:04:00,
2013-09-01 04:05:00,69.1,68.8,29.93,SW,229,0.0,0.0,99,0.00,,,0.00,Wunderground v.1.15,2013-09-01 08:05:00,
2013-09-01 04:06:00,69.1,68.8,29.93,SW,229,0.0,0.0,99,0.00,,,0.00,Wunderground v.1.15,2013-09-01 08:06:00,
2013-09-01 04:07:00,69.1,68.8,29.93,SW,229,0.0,0.0,99,0.00,,,0.00,Wunderground v.1.15,2013-09-01 08:07:00,
2013-09-01 04:09:00,69.2,68.9,29.93,SW,229,0.0,0.0,99,0.00,,,0.00,Wunderground v.1.15,2013-09-01 08:09:00,
2013-09-01 04:11:00,69.2,68.9,29.94,SW,229,0.0,0.0,99,0.00,,,0.00,Wunderground v.1.15,2013-09-01 08:11:00,
2013-09-01 04:12:00,69.2,68.9,29.94,SW,229,0.0,0.0,99,0.00,,,0.00,Wunderground v.1.15,2013-09-01 08:12:00,
2013-09-01 04:14:00,69.2,68.9,29.94,SW,229,0.0,0.0,99,0.00,,,0.00,Wunderground v.1.15,2013-09-01 08:14:00,
2013-09-01 04:16:00,69.3,69.0,29.94,SW,229,0.0,0.0,99,0.00,,,0.00,Wunderground v.1.15,2013-09-01 08:16:00,
2013-09-01 04:17:00,69.3,69.0,29.94,SW,229,0.0,0.0,99,0.00,,,0.00,Wunderground v.1.15,2013-09-01 08:17:00,
2013-09-01 04:18:00,69.4,69.1,29.94,SW,229,0.0,0.0,99,0.00,,,0.00,Wunderground v.1.15,2013-09-01 08:18:00,
2013-09-01 04:19:00,69.4,69.1,29.94,North,352,2.0,2.0,99,0.00,,,0.00,Wunderground v.1.15,2013-09-01 08:19:00,
2013-09-01 04:21:00,69.6,69.3,29.94,North,354,1.0,2.0,99,0.00,,,0.00,Wunderground v.1.15,2013-09-01 08:21:00,
2013-09-01 04:22:00,69.6,69.3,29.94,North,11,1.0,2.0,99,0.00,,,0.00,Wunderground v.1.15,2013-09-01 08:22:00,
2013-09-01 04:23:00,69.7,69.4,29.94,NNW,346,2.0,3.0,99,0.00,,,0.00,Wunderground v.1.15,2013-09-01 08:23:00,
2013-09-01 04:24:00,69.7,69.4,29.94,North,360,2.0,3.0,99,0.00,,,0.00,Wunderground v.1.15,2013-09-01 08:24:00,
2013-09-01 04:25:00,69.7,69.4,29.94,NW,316,1.0,3.0,99,0.00,,,0.00,Wunderground v.1.15,2013-09-01 08:25:00,
2013-09-01 04:26:00,69.7,69.4,29.94,NNW,338,1.0,3.0,99,0.00,,,0.00,Wunderground v.1.15,2013-09-01 08:26:00,
2013-09-01 04:27:00,69.8,69.5,29.94,NNW,338,0.0,3.0,99,0.00,,,0.00,Wunderground v.1.15,2013-09-01 08:27:00,
2013-09-01 04:28:00,69.8,69.5,29.94,NNW,337,0.0,3.0,99,0.00,,,0.00,Wunderground v.1.15,2013-09-01 08:28:00,
2013-09-01 04:29:00,69.8,69.5,29.94,NNW,338,0.0,3.0,99,0.00,,,0.00,Wunderground v.1.15,2013-09-01 08:29:00,
2013-09-01 04:31:00,69.8,69.5,29.94,WNW,293,0.0,1.0,99,0.00,,,0.00,Wunderground v.1.15,2013-09-01 08:31:00,
2013-09-01 04:32:00,69.8,69.5,29.94,WNW,293,0.0,1.0,99,0.00,,,0.00,Wunderground v.1.15,2013-09-01 08:32:00,
2013-09-01 04:33:00,69.7,69.4,29.94,WNW,293,0.0,1.0,99,0.00,,,0.00,Wunderground v.1.15,2013-09-01 08:33:00,
2013-09-01 04:34:00,69.7,69.4,29.93,WNW,293,0.0,1.0,99,0.00,,,0.00,Wunderground v.1.15,2013-09-01 08:34:00,
2013-09-01 04:36:00,69.7,69.4,29.93,WNW,293,0.0,1.0,99,0.00,,,0.00,Wunderground v.1.15,2013-09-01 08:36:00,
2013-09-01 04:37:00,69.7,69.4,29.94,WNW,293,0.0,1.0,99,0.00,,,0.00,Wunderground v.1.15,2013-09-01 08:37:00,
2013-09-01 04:39:00,69.7,69.4,29.94,WNW,293,0.0,1.0,99,0.00,,,0.00,Wunderground v.1.15,2013-09-01 08:39:00,
2013-09-01 04:42:00,69.6,69.3,29.94,WNW,292,0.0,0.0,99,0.00,,,0.00,Wunderground v.1.15,2013-09-01 08:42:00,
2013-09-01 04:44:00,69.6,69.3,29.94,WNW,293,0.0,0.0,99,0.00,,,0.00,Wunderground v.1.15,2013-09-01 08:44:00,
2013-09-01 04:47:00,69.6,69.3,29.94,WNW,293,0.0,0.0,99,0.00,,,0.00,Wunderground v.1.15,2013-09-01 08:47:00,
2013-09-01 04:49:00,69.6,69.3,29.94,WNW,293,0.0,0.0,99,0.00,,,0.00,Wunderground v.1.15,2013-09-01 08:49:00,
2013-09-01 04:52:00,69.5,69.2,29.94,WNW,293,0.0,0.0,99,0.00,,,0.00,Wunderground v.1.15,2013-09-01 08:52:00,
2013-09-01 04:53:00,69.5,69.2,29.94,WNW,293,0.0,0.0,99,0.00,,,0.00,Wunderground v.1.15,2013-09-01 08:53:00,
2013-09-01 04:54:00,69.5,69.2,29.94,WNW,293,0.0,0.0,99,0.00,,,0.00,Wunderground v.1.15,2013-09-01 08:54:00,
2013-09-01 04:57:00,69.5,69.2,29.94,WNW,293,0.0,0.0,99,0.00,,,0.00,Wunderground v.1.15,2013-09-01 08:57:00,
2013-09-01 04:58:00,69.6,69.3,29.94,WNW,292,0.0,0.0,99,0.00,,,0.00,Wunderground v.1.15,2013-09-01 08:58:00,
2013-09-01 04:59:00,69.6,69.3,29.94,WNW,290,0.0,0.0,99,0.00,,,0.00,Wunderground v.1.15,2013-09-01 08:59:00,
2013-09-01 05:02:00,69.6,69.3,29.94,SSW,197,0.0,0.0,99,0.00,,,0.00,Wunderground v.1.15,2013-09-01 09:02:00,
2013-09-01 05:03:00,69.6,69.3,29.94,SSW,197,0.0,0.0,99,0.00,,,0.00,Wunderground v.1.15,2013-09-01 09:03:00,
2013-09-01 05:04:00,69.6,69.3,29.94,SSW,197,0.0,0.0,99,0.00,,,0.00,Wunderground v.1.15,2013-09-01 09:04:00,
2013-09-01 05:07:00,69.6,69.3,29.93,SSW,197,0.0,0.0,99,0.00,,,0.00,Wunderground v.1.15,2013-09-01 09:07:00,
2013-09-01 05:08:00,69.6,69.3,29.93,SSW,197,0.0,0.0,99,0.00,,,0.00,Wunderground v.1.15,2013-09-01 09:08:00,
2013-09-01 05:09:00,69.6,69.3,29.93,SSW,196,0.0,0.0,99,0.00,,,0.00,Wunderground v.1.15,2013-09-01 09:09:00,
2013-09-01 05:12:00,69.6,69.3,29.94,SSW,212,0.0,0.0,99,0.00,,,0.00,Wunderground v.1.15,2013-09-01 09:12:00,
2013-09-01 05:13:00,69.6,69.3,29.94,SW,215,0.0,0.0,99,0.00,,,0.00,Wunderground v.1.15,2013-09-01 09:13:00,
2013-09-01 05:14:00,69.6,69.3,29.94,SSW,212,0.0,0.0,99,0.00,,,0.00,Wunderground v.1.15,2013-09-01 09:14:00,
2013-09-01 05:15:00,69.6,69.3,29.94,SSW,212,0.0,0.0,99,0.00,,,0.00,Wunderground v.1.15,2013-09-01 09:15:00,
2013-09-01 05:17:00,69.6,69.3,29.94,SSW,212,0.0,0.0,99,0.00,,,0.00,Wunderground v.1.15,2013-09-01 09:17:00,
2013-09-01 05:18:00,69.6,69.3,29.94,SSW,212,0.0,0.0,99,0.00,,,0.00,Wunderground v.1.15,2013-09-01 09:18:00,
2013-09-01 05:19:00,69.6,69.3,29.94,SSW,212,0.0,0.0,99,0.00,,,0.00,Wunderground v.1.15,2013-09-01 09:19:00,
2013-09-01 05:20:00,69.6,69.3,29.94,SSW,212,0.0,0.0,99,0.00,,,0.00,Wunderground v.1.15,2013-09-01 09:20:00,
2013-09-01 05:22:00,69.6,69.3,29.94,SSW,212,0.0,0.0,99,0.00,,,0.00,Wunderground v.1.15,2013-09-01 09:22:00,
2013-09-01 05:23:00,69.6,69.3,29.94,SSW,212,0.0,0.0,99,0.00,,,0.00,Wunderground v.1.15,2013-09-01 09:23:00,
2013-09-01 05:24:00,69.6,69.3,29.94,SSW,212,0.0,0.0,99,0.00,,,0.00,Wunderground v.1.15,2013-09-01 09:24:00,
2013-09-01 05:25:00,69.6,69.3,29.94,SSW,212,0.0,0.0,99,0.00,,,0.00,Wunderground v.1.15,2013-09-01 09:25:00,
2013-09-01 05:27:00,69.6,69.3,29.94,West,264,0.0,0.0,99,0.00,,,0.00,Wunderground v.1.15,2013-09-01 09:27:00,
2013-09-01 05:28:00,69.6,69.3,29.94,West,264,0.0,0.0,99,0.00,,,0.00,Wunderground v.1.15,2013-09-01 09:28:00,
2013-09-01 05:30:00,69.5,69.2,29.94,WSW,250,0.0,0.0,99,0.00,,,0.00,Wunderground v.1.15,2013-09-01 09:30:00,
2013-09-01 05:32:00,69.5,69.2,29.94,WSW,252,0.0,0.0,99,0.00,,,0.00,Wunderground v.1.15,2013-09-01 09:32:00,
2013-09-01 05:33:00,69.6,69.3,29.94,SW,221,2.0,2.0,99,0.00,,,0.00,Wunderground v.1.15,2013-09-01 09:33:00,
2013-09-01 05:35:00,69.5,69.2,29.94,WSW,249,0.0,2.0,99,0.00,,,0.00,Wunderground v.1.15,2013-09-01 09:35:00,
2013-09-01 05:37:00,69.5,69.2,29.94,WSW,248,0.0,2.0,99,0.00,,,0.00,Wunderground v.1.15,2013-09-01 09:37:00,
2013-09-01 05:38:00,69.6,69.3,29.94,WSW,249,0.0,2.0,99,0.00,,,0.00,Wunderground v.1.15,2013-09-01 09:38:00,
2013-09-01 05:40:00,69.6,69.3,29.94,SW,227,1.0,1.0,99,0.00,,,0.00,Wunderground v.1.15,2013-09-01 09:40:00,
2013-09-01 05:41:00,69.5,69.2,29.94,SW,227,0.0,1.0,99,0.00,,,0.00,Wunderground v.1.15,2013-09-01 09:41:00,
2013-09-01 05:42:00,69.5,69.2,29.94,SW,221,2.0,2.0,99,0.00,,,0.00,Wunderground v.1.15,2013-09-01 09:42:00,
2013-09-01 05:43:00,69.5,69.2,29.94,WSW,240,1.0,2.0,99,0.00,,,0.00,Wunderground v.1.15,2013-09-01 09:43:00,
2013-09-01 05:44:00,69.5,69.2,29.94,WSW,240,1.0,2.0,99,0.00,,,0.00,Wunderground v.1.15,2013-09-01 09:44:00,
2013-09-01 05:45:00,69.5,69.2,29.94,WSW,240,0.0,2.0,99,0.00,,,0.00,Wunderground v.1.15,2013-09-01 09:45:00,
2013-09-01 05:46:00,69.5,69.2,29.94,WSW,240,0.0,2.0,99,0.00,,,0.00,Wunderground v.1.15,2013-09-01 09:46:00,
2013-09-01 05:47:00,69.5,69.2,29.93,WSW,239,0.0,2.0,99,0.00,,,0.00,Wunderground v.1.15,2013-09-01 09:47:00,
2013-09-01 05:48:00,69.5,69.2,29.93,SW,229,0.0,2.0,99,0.00,,,0.00,Wunderground v.1.15,2013-09-01 09:48:00,
2013-09-01 05:49:00,69.5,69.2,29.93,SW,229,1.0,2.0,99,0.00,,,0.00,Wunderground v.1.15,2013-09-01 09:49:00,
2013-09-01 05:50:00,69.6,69.3,29.93,SW,232,0.0,1.0,99,0.00,,,0.00,Wunderground v.1.15,2013-09-01 09:50:00,
2013-09-01 05:51:00,69.6,69.3,29.93,SW,232,0.0,1.0,99,0.00,,,0.00,Wunderground v.1.15,2013-09-01 09:51:00,
2013-09-01 05:52:00,69.6,69.3,29.93,SW,233,0.0,1.0,99,0.00,,,0.00,Wunderground v.1.15,2013-09-01 09:52:00,
2013-09-01 05:53:00,69.5,69.2,29.93,SW,233,0.0,1.0,99,0.00,,,0.00,Wunderground v.1.15,2013-09-01 09:53:00,
2013-09-01 05:54:00,69.5,69.2,29.93,SW,232,0.0,1.0,99,0.00,,,0.00,Wunderground v.1.15,2013-09-01 09:54:00,
2013-09-01 05:55:00,69.6,69.3,29.93,SW,233,0.0,1.0,99,0.00,,,0.00,Wunderground v.1.15,2013-09-01 09:55:00,
2013-09-01 05:56:00,69.6,69.3,29.94,SW,232,0.0,1.0,99,0.00,,,0.00,Wunderground v.1.15,2013-09-01 09:56:00,
2013-09-01 05:57:00,69.6,69.3,29.93,SW,232,0.0,1.0,99,0.00,,,0.00,Wunderground v.1.15,2013-09-01 09:57:00,
2013-09-01 05:58:00,69.5,69.2,29.93,SW,233,0.0,1.0,99,0.00,,,0.00,Wunderground v.1.15,2013-09-01 09:58:00,
2013-09-01 05:59:00,69.5,69.2,29.93,SW,232,0.0,1.0,99,0.00,,,0.00,Wunderground v.1.15,2013-09-01 09:59:00,
2013-09-01 06:00:00,69.5,69.2,29.93,SW,233,0.0,0.0,99,0.00,,,0.00,Wunderground v.1.15,2013-09-01 10:00:00,
2013-09-01 06:01:00,69.6,69.3,29.93,SW,233,0.0,0.0,99,0.00,,,0.00,Wunderground v.1.15,2013-09-01 10:01:00,
2013-09-01 06:02:00,69.5,69.2,29.93,SW,233,0.0,0.0,99,0.00,,,0.00,Wunderground v.1.15,2013-09-01 10:02:00,
2013-09-01 06:03:00,69.5,69.2,29.93,SW,232,0.0,0.0,99,0.00,,,0.00,Wunderground v.1.15,2013-09-01 10:03:00,
2013-09-01 06:04:00,69.5,69.2,29.93,SW,232,0.0,0.0,99,0.00,,,0.00,Wunderground v.1.15,2013-09-01 10:04:00,
2013-09-01 06:05:00,69.6,69.3,29.93,SW,233,0.0,0.0,99,0.00,,,0.00,Wunderground v.1.15,2013-09-01 10:05:00,
2013-09-01 06:07:00,69.6,69.3,29.93,SSW,207,0.0,1.0,99,0.00,,,0.00,Wunderground v.1.15,2013-09-01 10:07:00,
2013-09-01 06:08:00,69.6,69.3,29.93,SSW,207,0.0,1.0,99,0.00,,,0.00,Wunderground v.1.15,2013-09-01 10:08:00,
2013-09-01 06:09:00,69.6,69.3,29.93,SSW,212,0.0,1.0,99,0.00,,,0.00,Wunderground v.1.15,2013-09-01 10:09:00,
2013-09-01 06:10:00,69.6,69.3,29.93,SSW,212,0.0,0.0,99,0.00,,,0.00,Wunderground v.1.15,2013-09-01 10:10:00,
2013-09-01 06:12:00,69.5,69.2,29.93,SSW,212,0.0,0.0,99,0.00,,,0.00,Wunderground v.1.15,2013-09-01 10:12:00,
2013-09-01 06:13:00,69.5,69.2,29.93,SSW,212,0.0,0.0,99,0.00,,,0.00,Wunderground v.1.15,2013-09-01 10:13:00,
2013-09-01 06:14:00,69.6,69.3,29.93,SSW,212,0.0,0.0,99,0.00,,,0.00,Wunderground v.1.15,2013-09-01 10:14:00,
2013-09-01 06:15:00,69.6,69.3,29.93,SSW,212,0.0,0.0,99,0.00,,,0.00,Wunderground v.1.15,2013-09-01 10:15:00,
2013-09-01 06:17:00,69.6,69.3,29.93,SSW,212,0.0,0.0,99,0.00,,,0.00,Wunderground v.1.15,2013-09-01 10:17:00,
2013-09-01 06:18:00,69.6,69.3,29.93,SSW,212,0.0,0.0,99,0.00,,,0.00,Wunderground v.1.15,2013-09-01 10:18:00,
2013-09-01 06:20:00,69.6,69.3,29.93,SSW,212,0.0,0.0,99,0.00,,,0.01,Wunderground v.1.15,2013-09-01 10:20:00,
2013-09-01 06:22:00,69.6,69.3,29.93,SSW,212,0.0,0.0,99,0.00,,,0.01,Wunderground v.1.15,2013-09-01 10:22:00,
2013-09-01 06:23:00,69.6,69.3,29.93,SSW,212,0.0,0.0,99,0.00,,,0.01,Wunderground v.1.15,2013-09-01 10:23:00,
2013-09-01 06:25:00,69.7,69.4,29.93,SSW,212,0.0,0.0,99,0.00,,,0.01,Wunderground v.1.15,2013-09-01 10:25:00,
2013-09-01 06:27:00,69.7,69.4,29.93,SSW,212,0.0,0.0,99,0.00,,,0.01,Wunderground v.1.15,2013-09-01 10:27:00,
2013-09-01 06:28:00,69.7,69.4,29.93,SSW,212,0.0,0.0,99,0.00,,,0.01,Wunderground v.1.15,2013-09-01 10:28:00,
2013-09-01 06:30:00,69.7,69.4,29.93,SSW,212,0.0,0.0,99,0.00,,,0.01,Wunderground v.1.15,2013-09-01 10:30:00,
2013-09-01 06:32:00,69.8,69.5,29.94,SSW,212,0.0,0.0,99,0.00,,,0.01,Wunderground v.1.15,2013-09-01 10:32:00,
2013-09-01 06:33:00,69.7,69.4,29.94,SSW,212,0.0,0.0,99,0.00,,,0.01,Wunderground v.1.15,2013-09-01 10:33:00,
2013-09-01 06:35:00,69.8,69.5,29.94,SSW,212,0.0,0.0,99,0.00,,,0.01,Wunderground v.1.15,2013-09-01 10:35:00,
2013-09-01 06:38:00,69.8,69.5,29.94,SSW,212,0.0,0.0,99,0.00,,,0.01,Wunderground v.1.15,2013-09-01 10:38:00,
2013-09-01 06:40:00,69.9,69.6,29.94,SSW,210,0.0,0.0,99,0.00,,,0.01,Wunderground v.1.15,2013-09-01 10:40:00,
2013-09-01 06:41:00,69.9,69.6,29.94,SSW,210,0.0,0.0,99,0.00,,,0.01,Wunderground v.1.15,2013-09-01 10:41:00,
2013-09-01 06:43:00,69.9,69.6,29.94,SSW,212,0.0,0.0,99,0.00,,,0.01,Wunderground v.1.15,2013-09-01 10:43:00,
2013-09-01 06:45:00,69.9,69.6,29.94,SSW,212,0.0,0.0,99,0.00,,,0.01,Wunderground v.1.15,2013-09-01 10:45:00,
2013-09-01 06:46:00,69.9,69.6,29.94,SSW,212,0.0,0.0,99,0.00,,,0.01,Wunderground v.1.15,2013-09-01 10:46:00,
2013-09-01 06:48:00,69.9,69.6,29.94,SSW,212,0.0,0.0,99,0.00,,,0.01,Wunderground v.1.15,2013-09-01 10:48:00,
2013-09-01 06:51:00,69.9,69.6,29.94,SSW,212,0.0,0.0,99,0.00,,,0.01,Wunderground v.1.15,2013-09-01 10:51:00,
2013-09-01 06:53:00,70.0,69.7,29.94,SW,222,0.0,0.0,99,0.00,,,0.01,Wunderground v.1.15,2013-09-01 10:53:00,
2013-09-01 06:54:00,70.0,69.7,29.94,SW,222,0.0,0.0,99,0.00,,,0.01,Wunderground v.1.15,2013-09-01 10:54:00,
2013-09-01 06:56:00,70.0,69.7,29.94,SW,224,0.0,0.0,99,0.00,,,0.01,Wunderground v.1.15,2013-09-01 10:56:00,
2013-09-01 06:58:00,70.0,69.7,29.94,SW,227,0.0,0.0,99,0.00,,,0.01,Wunderground v.1.15,2013-09-01 10:58:00,
2013-09-01 06:59:00,70.0,69.7,29.94,SW,226,0.0,0.0,99,0.00,,,0.01,Wunderground v.1.15,2013-09-01 10:59:00,
2013-09-01 07:00:00,70.1,69.8,29.94,SSW,210,0.0,0.0,99,0.00,,,0.01,Wunderground v.1.15,2013-09-01 11:00:00,
2013-09-01 07:01:00,70.0,69.7,29.94,SSW,210,0.0,0.0,99,0.00,,,0.01,Wunderground v.1.15,2013-09-01 11:01:00,
2013-09-01 07:03:00,70.1,69.8,29.94,SSW,212,0.0,0.0,99,0.00,,,0.01,Wunderground v.1.15,2013-09-01 11:03:00,
2013-09-01 07:04:00,70.1,69.8,29.94,SW,226,0.0,0.0,99,0.00,,,0.01,Wunderground v.1.15,2013-09-01 11:04:00,
2013-09-01 07:05:00,70.0,69.7,29.94,SW,229,0.0,0.0,99,0.00,,,0.01,Wunderground v.1.15,2013-09-01 11:05:00,
2013-09-01 07:07:00,70.1,69.8,29.94,SW,229,0.0,0.0,99,0.00,,,0.01,Wunderground v.1.15,2013-09-01 11:07:00,
2013-09-01 07:08:00,70.1,69.8,29.94,SW,229,0.0,0.0,99,0.00,,,0.01,Wunderground v.1.15,2013-09-01 11:08:00,
2013-09-01 07:09:00,70.1,69.8,29.94,SW,229,0.0,0.0,99,0.00,,,0.01,Wunderground v.1.15,2013-09-01 11:09:00,
2013-09-01 07:11:00,70.1,69.8,29.94,SW,229,0.0,0.0,99,0.00,,,0.01,Wunderground v.1.15,2013-09-01 11:11:00,
2013-09-01 07:12:00,70.1,69.8,29.94,SW,221,0.0,0.0,99,0.00,,,0.01,Wunderground v.1.15,2013-09-01 11:12:00,
2013-09-01 07:13:00,70.1,69.8,29.94,SSW,212,0.0,0.0,99,0.00,,,0.01,Wunderground v.1.15,2013-09-01 11:13:00,
2013-09-01 07:14:00,70.1,69.8,29.94,SSW,212,0.0,0.0,99,0.00,,,0.01,Wunderground v.1.15,2013-09-01 11:14:00,
2013-09-01 07:16:00,70.1,69.8,29.94,SW,225,0.0,0.0,99,0.00,,,0.01,Wunderground v.1.15,2013-09-01 11:16:00,
2013-09-01 07:17:00,70.1,69.8,29.94,SW,218,0.0,0.0,99,0.00,,,0.01,Wunderground v.1.15,2013-09-01 11:17:00,
2013-09-01 07:18:00,70.1,69.8,29.94,SW,224,1.0,1.0,99,0.00,,,0.01,Wunderground v.1.15,2013-09-01 11:18:00,
2013-09-01 07:19:00,70.1,69.8,29.94,SW,215,1.0,1.0,99,0.00,,,0.01,Wunderground v.1.15,2013-09-01 11:19:00,
2013-09-01 07:21:00,70.1,69.8,29.94,SW,229,1.0,1.0,99,0.00,,,0.01,Wunderground v.1.15,2013-09-01 11:21:00,
2013-09-01 07:22:00,70.1,69.8,29.94,SSW,207,2.0,2.0,99,0.00,,,0.01,Wunderground v.1.15,2013-09-01 11:22:00,
2013-09-01 07:23:00,70.1,69.8,29.94,SW,215,1.0,2.0,99,0.00,,,0.01,Wunderground v.1.15,2013-09-01 11:23:00,
2013-09-01 07:24:00,70.1,69.8,29.94,SW,215,1.0,2.0,99,0.00,,,0.01,Wunderground v.1.15,2013-09-01 11:24:00,
2013-09-01 07:26:00,70.2,69.9,29.94,SSW,212,1.0,3.0,99,0.00,,,0.01,Wunderground v.1.15,2013-09-01 11:26:00,
2013-09-01 07:27:00,70.2,69.9,29.94,SW,233,1.0,3.0,99,0.00,,,0.01,Wunderground v.1.15,2013-09-01 11:27:00,
2013-09-01 07:28:00,70.2,69.9,29.94,SW,233,1.0,3.0,99,0.00,,,0.01,Wunderground v.1.15,2013-09-01 11:28:00,
2013-09-01 07:30:00,70.3,70.0,29.94,WSW,258,0.0,1.0,99,0.00,,,0.01,Wunderground v.1.15,2013-09-01 11:30:00,
2013-09-01 07:31:00,70.3,70.0,29.94,WSW,256,0.0,1.0,99,0.00,,,0.01,Wunderground v.1.15,2013-09-01 11:31:00,
2013-09-01 07:32:00,70.3,70.0,29.94,WSW,255,0.0,1.0,99,0.00,,,0.01,Wunderground v.1.15,2013-09-01 11:32:00,
2013-09-01 07:33:00,70.3,70.0,29.94,SW,228,2.0,2.0,99,0.00,,,0.01,Wunderground v.1.15,2013-09-01 11:33:00,
2013-09-01 07:35:00,70.3,70.0,29.94,WSW,250,1.0,2.0,99,0.00,,,0.01,Wunderground v.1.15,2013-09-01 11:35:00,
2013-09-01 07:36:00,70.4,70.1,29.94,WNW,302,0.0,2.0,99,0.00,,,0.01,Wunderground v.1.15,2013-09-01 11:36:00,
2013-09-01 07:37:00,70.4,70.1,29.94,WSW,252,0.0,2.0,99,0.00,,,0.01,Wunderground v.1.15,2013-09-01 11:37:00,
2013-09-01 07:38:00,70.4,70.1,29.94,WSW,238,1.0,2.0,99,0.00,,,0.01,Wunderground v.1.15,2013-09-01 11:38:00,
2013-09-01 07:40:00,70.4,70.1,29.94,West,264,0.0,1.0,99,0.00,,,0.01,Wunderground v.1.15,2013-09-01 11:40:00,
2013-09-01 07:41:00,70.5,70.2,29.94,SW,227,1.0,1.0,99,0.00,,,0.01,Wunderground v.1.15,2013-09-01 11:41:00,
2013-09-01 07:43:00,70.5,70.2,29.94,SW,218,2.0,2.0,99,0.00,,,0.01,Wunderground v.1.15,2013-09-01 11:43:00,
2013-09-01 07:44:00,70.5,70.2,29.94,SSW,212,2.0,2.0,99,0.00,,,0.01,Wunderground v.1.15,2013-09-01 11:44:00,
2013-09-01 07:45:00,70.5,70.2,29.94,SW,221,1.0,2.0,99,0.00,,,0.01,Wunderground v.1.15,2013-09-01 11:45:00,
2013-09-01 07:46:00,70.6,70.3,29.94,SW,221,1.0,2.0,99,0.00,,,0.01,Wunderground v.1.15,2013-09-01 11:46:00,
2013-09-01 07:48:00,70.6,70.3,29.94,SW,236,1.0,2.0,99,0.00,,,0.01,Wunderground v.1.15,2013-09-01 11:48:00,
2013-09-01 07:49:00,70.6,70.3,29.94,SW,232,0.0,2.0,99,0.00,,,0.01,Wunderground v.1.15,2013-09-01 11:49:00,
2013-09-01 07:50:00,70.7,70.4,29.94,WSW,253,1.0,2.0,99,0.00,,,0.01,Wunderground v.1.15,2013-09-01 11:50:00,
2013-09-01 07:51:00,70.7,70.4,29.95,SW,221,1.0,3.0,99,0.00,,,0.01,Wunderground v.1.15,2013-09-01 11:51:00,
2013-09-01 07:53:00,70.7,70.4,29.95,WNW,291,1.0,3.0,99,0.00,,,0.01,Wunderground v.1.15,2013-09-01 11:53:00,
2013-09-01 07:54:00,70.7,70.4,29.95,WNW,291,0.0,3.0,99,0.00,,,0.01,Wunderground v.1.15,2013-09-01 11:54:00,
2013-09-01 07:55:00,70.7,70.4,29.95,SW,225,1.0,3.0,99,0.00,,,0.01,Wunderground v.1.15,2013-09-01 11:55:00,
2013-09-01 07:56:00,70.8,70.5,29.95,SW,225,0.0,3.0,99,0.00,,,0.01,Wunderground v.1.15,2013-09-01 11:56:00,
2013-09-01 07:58:00,70.8,70.5,29.95,SW,225,0.0,3.0,99,0.00,,,0.01,Wunderground v.1.15,2013-09-01 11:58:00,
2013-09-01 07:59:00,70.8,70.5,29.95,NW,315,0.0,3.0,99,0.00,,,0.01,Wunderground v.1.15,2013-09-01 11:59:00,
2013-09-01 08:00:00,70.9,70.6,29.95,WSW,253,1.0,1.0,99,0.00,,,0.01,Wunderground v.1.15,2013-09-01 12:00:00,
2013-09-01 08:01:00,70.9,70.6,29.95,SW,229,1.0,3.0,99,0.00,,,0.01,Wunderground v.1.15,2013-09-01 12:01:00,
2013-09-01 08:03:00,71.0,70.7,29.95,WSW,258,2.0,5.0,99,0.00,,,0.01,Wunderground v.1.15,2013-09-01 12:03:00,
2013-09-01 08:04:00,71.0,70.7,29.95,WSW,257,1.0,5.0,99,0.00,,,0.01,Wunderground v.1.15,2013-09-01 12:04:00,
2013-09-01 08:05:00,71.0,70.7,29.95,WNW,288,1.0,5.0,99,0.00,,,0.01,Wunderground v.1.15,2013-09-01 12:05:00,
2013-09-01 08:06:00,71.0,70.7,29.95,WNW,288,0.0,5.0,99,0.00,,,0.01,Wunderground v.1.15,2013-09-01 12:06:00,
2013-09-01 08:08:00,71.1,70.8,29.95,West,260,0.0,5.0,99,0.00,,,0.01,Wunderground v.1.15,2013-09-01 12:08:00,
2013-09-01 08:09:00,71.1,70.8,29.95,West,260,0.0,5.0,99,0.00,,,0.01,Wunderground v.1.15,2013-09-01 12:09:00,
2013-09-01 08:10:00,71.2,70.9,29.95,West,260,0.0,1.0,99,0.00,,,0.01,Wunderground v.1.15,2013-09-01 12:10:00,
2013-09-01 08:11:00,71.2,70.9,29.95,West,264,0.0,1.0,99,0.00,,,0.01,Wunderground v.1.15,2013-09-01 12:11:00,
2013-09-01 08:13:00,71.4,71.1,29.95,NNE,14,0.0,1.0,99,0.00,,,0.01,Wunderground v.1.15,2013-09-01 12:13:00,
2013-09-01 08:14:00,71.4,71.1,29.95,NNE,15,0.0,1.0,99,0.00,,,0.01,Wunderground v.1.15,2013-09-01 12:14:00,
2013-09-01 08:15:00,71.5,71.2,29.95,SW,229,1.0,1.0,99,0.00,,,0.01,Wunderground v.1.15,2013-09-01 12:15:00,
2013-09-01 08:16:00,71.5,71.2,29.95,SW,232,2.0,2.0,99,0.00,,,0.01,Wunderground v.1.15,2013-09-01 12:16:00,
2013-09-01 08:19:00,71.6,71.3,29.95,WSW,253,1.0,3.0,99,0.00,,,0.01,Wunderground v.1.15,2013-09-01 12:19:00,
2013-09-01 08:21:00,71.6,71.3,29.95,WSW,248,2.0,2.0,99,0.00,,,0.01,Wunderground v.1.15,2013-09-01 12:21:00,
2013-09-01 08:24:00,71.7,71.4,29.95,SSW,205,3.0,4.0,99,0.00,,,0.01,Wunderground v.1.15,2013-09-01 12:24:00,
2013-09-01 08:26:00,71.8,71.5,29.96,SW,233,1.0,4.0,99,0.00,,,0.01,Wunderground v.1.15,2013-09-01 12:26:00,
2013-09-01 08:29:00,71.9,71.6,29.96,WSW,256,1.0,4.0,99,0.00,,,0.01,Wunderground v.1.15,2013-09-01 12:29:00,
2013-09-01 08:30:00,72.0,71.7,29.96,WSW,252,0.0,1.0,99,0.00,,,0.01,Wunderground v.1.15,2013-09-01 12:30:00,
2013-09-01 08:31:00,72.0,71.7,29.96,SW,228,1.0,4.0,99,0.00,,,0.01,Wunderground v.1.15,2013-09-01 12:31:00,
2013-09-01 08:34:00,72.0,71.7,29.96,WSW,252,0.0,4.0,99,0.00,,,0.01,Wunderground v.1.15,2013-09-01 12:34:00,
2013-09-01 08:35:00,72.1,71.8,29.96,WNW,300,0.0,4.0,99,0.00,,,0.01,Wunderground v.1.15,2013-09-01 12:35:00,
2013-09-01 08:36:00,72.2,71.9,29.96,NW,312,0.0,4.0,99,0.00,,,0.01,Wunderground v.1.15,2013-09-01 12:36:00,
2013-09-01 08:37:00,72.2,71.9,29.95,NW,312,0.0,4.0,99,0.00,,,0.01,Wunderground v.1.15,2013-09-01 12:37:00,
2013-09-01 08:39:00,72.3,72.0,29.95,West,275,0.0,4.0,99,0.00,,,0.01,Wunderground v.1.15,2013-09-01 12:39:00,
2013-09-01 08:40:00,72.3,72.0,29.95,SW,226,4.0,5.0,99,0.00,,,0.01,Wunderground v.1.15,2013-09-01 12:40:00,
2013-09-01 08:41:00,72.2,71.9,29.95,WSW,248,3.0,5.0,99,0.00,,,0.01,Wunderground v.1.15,2013-09-01 12:41:00,
2013-09-01 08:42:00,72.2,71.9,29.95,SW,215,1.0,5.0,99,0.00,,,0.01,Wunderground v.1.15,2013-09-01 12:42:00,
2013-09-01 08:44:00,72.3,72.0,29.95,SW,221,2.0,5.0,99,0.00,,,0.01,Wunderground v.1.15,2013-09-01 12:44:00,
2013-09-01 08:45:00,72.3,72.0,29.95,West,264,1.0,5.0,99,0.00,,,0.01,Wunderground v.1.15,2013-09-01 12:45:00,
2013-09-01 08:46:00,72.4,72.1,29.95,SSW,210,3.0,5.0,99,0.00,,,0.01,Wunderground v.1.15,2013-09-01 12:46:00,
2013-09-01 08:47:00,72.5,72.2,29.95,SW,229,2.0,5.0,99,0.00,,,0.01,Wunderground v.1.15,2013-09-01 12:47:00,
2013-09-01 08:49:00,72.6,72.3,29.95,SW,217,2.0,5.0,99,0.00,,,0.01,Wunderground v.1.15,2013-09-01 12:49:00,
2013-09-01 08:50:00,72.6,72.3,29.95,South,169,2.0,2.0,99,0.00,,,0.01,Wunderground v.1.15,2013-09-01 12:50:00,
2013-09-01 08:51:00,72.6,72.3,29.95,SSW,203,0.0,3.0,99,0.00,,,0.01,Wunderground v.1.15,2013-09-01 12:51:00,
2013-09-01 08:53:00,72.6,72.3,29.95,SW,225,0.0,4.0,99,0.00,,,0.01,Wunderground v.1.15,2013-09-01 12:53:00,
2013-09-01 08:54:00,72.6,72.3,29.95,WSW,256,0.0,4.0,99,0.00,,,0.01,Wunderground v.1.15,2013-09-01 12:54:00,
2013-09-01 08:55:00,72.7,72.4,29.95,SSW,210,2.0,4.0,99,0.00,,,0.01,Wunderground v.1.15,2013-09-01 12:55:00,
2013-09-01 08:57:00,72.7,72.4,29.95,SSW,210,2.0,5.0,99,0.00,,,0.01,Wunderground v.1.15,2013-09-01 12:57:00,
2013-09-01 08:58:00,72.7,72.4,29.95,SSE,166,2.0,5.0,99,0.00,,,0.01,Wunderground v.1.15,2013-09-01 12:58:00,
2013-09-01 08:59:00,72.8,72.5,29.95,SW,215,1.0,5.0,99,0.00,,,0.01,Wunderground v.1.15,2013-09-01 12:59:00,
2013-09-01 09:00:00,72.9,72.6,29.95,SSW,207,1.0,2.0,99,0.00,,,0.01,Wunderground v.1.15,2013-09-01 13:00:00,
2013-09-01 09:01:00,73.0,72.7,29.95,WSW,238,2.0,2.0,99,0.00,,,0.01,Wunderground v.1.15,2013-09-01 13:01:00,
2013-09-01 09:02:00,73.0,72.7,29.95,NW,322,1.0,2.0,99,0.00,,,0.01,Wunderground v.1.15,2013-09-01 13:02:00,
2013-09-01 09:03:00,73.0,72.7,29.95,North,356,1.0,3.0,99,0.00,,,0.01,Wunderground v.1.15,2013-09-01 13:03:00,
2013-09-01 09:04:00,73.0,72.7,29.95,South,190,0.0,3.0,99,0.00,,,0.01,Wunderground v.1.15,2013-09-01 13:04:00,
2013-09-01 09:05:00,73.1,72.8,29.95,SSW,197,2.0,3.0,99,0.00,,,0.01,Wunderground v.1.15,2013-09-01 13:05:00,
2013-09-01 09:06:00,73.1,72.8,29.95,WSW,257,2.0,3.0,99,0.00,,,0.01,Wunderground v.1.15,2013-09-01 13:06:00,
2013-09-01 09:07:00,73.1,72.8,29.95,West,267,1.0,3.0,99,0.00,,,0.01,Wunderground v.1.15,2013-09-01 13:07:00,
2013-09-01 09:08:00,73.2,72.9,29.95,WNW,289,2.0,3.0,99,0.00,,,0.01,Wunderground v.1.15,2013-09-01 13:08:00,
2013-09-01 09:09:00,73.2,72.9,29.95,NW,315,2.0,4.0,99,0.00,,,0.01,Wunderground v.1.15,2013-09-01 13:09:00,
2013-09-01 09:10:00,73.2,72.6,29.95,West,278,3.0,3.0,98,0.00,,,0.01,Wunderground v.1.15,2013-09-01 13:10:00,
2013-09-01 09:11:00,73.2,72.6,29.95,SSW,212,4.0,4.0,98,0.00,,,0.01,Wunderground v.1.15,2013-09-01 13:11:00,
2013-09-01 09:12:00,73.1,72.5,29.95,South,183,2.0,4.0,98,0.00,,,0.01,Wunderground v.1.15,2013-09-01 13:12:00,
2013-09-01 09:13:00,73.2,72.6,29.95,WNW,300,1.0,4.0,98,0.00,,,0.01,Wunderground v.1.15,2013-09-01 13:13:00,
2013-09-01 09:14:00,73.2,72.6,29.95,WNW,295,1.0,4.0,98,0.00,,,0.01,Wunderground v.1.15,2013-09-01 13:14:00,
2013-09-01 09:15:00,73.2,72.6,29.95,West,273,3.0,4.0,98,0.00,,,0.01,Wunderground v.1.15,2013-09-01 13:15:00,
2013-09-01 09:16:00,73.2,72.6,29.95,SW,229,0.0,4.0,98,0.00,,,0.01,Wunderground v.1.15,2013-09-01 13:16:00,
2013-09-01 09:17:00,73.2,72.6,29.95,SW,233,1.0,4.0,98,0.00,,,0.01,Wunderground v.1.15,2013-09-01 13:17:00,
2013-09-01 09:19:00,73.4,72.8,29.95,NW,308,2.0,4.0,98,0.00,,,0.01,Wunderground v.1.15,2013-09-01 13:19:00,
2013-09-01 09:20:00,73.5,72.9,29.96,North,354,2.0,2.0,98,0.00,,,0.01,Wunderground v.1.15,2013-09-01 13:20:00,
2013-09-01 09:22:00,73.5,72.9,29.96,West,267,2.0,4.0,98,0.00,,,0.01,Wunderground v.1.15,2013-09-01 13:22:00,
2013-09-01 09:24:00,73.6,73.0,29.96,WNW,284,3.0,4.0,98,0.00,,,0.01,Wunderground v.1.15,2013-09-01 13:24:00,
2013-09-01 09:25:00,73.6,73.0,29.96,West,280,1.0,4.0,98,0.00,,,0.01,Wunderground v.1.15,2013-09-01 13:25:00,
2013-09-01 09:27:00,73.7,73.1,29.96,NE,38,0.0,4.0,98,0.00,,,0.01,Wunderground v.1.15,2013-09-01 13:27:00,
2013-09-01 09:28:00,73.7,73.1,29.96,NNW,327,1.0,4.0,98,0.00,,,0.01,Wunderground v.1.15,2013-09-01 13:28:00,
2013-09-01 09:29:00,73.8,73.2,29.96,West,280,1.0,4.0,98,0.00,,,0.01,Wunderground v.1.15,2013-09-01 13:29:00,
2013-09-01 09:30:00,73.8,73.2,29.96,West,280,0.0,1.0,98,0.00,,,0.01,Wunderground v.1.15,2013-09-01 13:30:00,
2013-09-01 09:32:00,73.9,73.0,29.96,WSW,240,2.0,3.0,97,0.00,,,0.01,Wunderground v.1.15,2013-09-01 13:32:00,
2013-09-01 09:33:00,73.9,73.0,29.96,WSW,240,2.0,3.0,97,0.00,,,0.01,Wunderground v.1.15,2013-09-01 13:33:00,
2013-09-01 09:34:00,74.1,73.2,29.96,WSW,256,1.0,3.0,97,0.00,,,0.01,Wunderground v.1.15,2013-09-01 13:34:00,
2013-09-01 09:35:00,74.1,72.9,29.96,WSW,240,2.0,3.0,96,0.00,,,0.01,Wunderground v.1.15,2013-09-01 13:35:00,
2013-09-01 09:37:00,74.4,73.2,29.96,WSW,253,1.0,3.0,96,0.00,,,0.01,Wunderground v.1.15,2013-09-01 13:37:00,
2013-09-01 09:38:00,74.4,73.2,29.96,WSW,239,3.0,4.0,96,0.00,,,0.01,Wunderground v.1.15,2013-09-01 13:38:00,
2013-09-01 09:39:00,74.5,73.3,29.96,SW,215,3.0,4.0,96,0.00,,,0.01,Wunderground v.1.15,2013-09-01 13:39:00,
2013-09-01 09:40:00,74.5,73.3,29.96,SSW,197,2.0,3.0,96,0.00,,,0.01,Wunderground v.1.15,2013-09-01 13:40:00,
2013-09-01 09:42:00,74.8,73.6,29.96,WSW,248,0.0,3.0,96,0.00,,,0.01,Wunderground v.1.15,2013-09-01 13:42:00,
2013-09-01 09:43:00,74.9,73.7,29.96,SW,236,0.0,3.0,96,0.00,,,0.01,Wunderground v.1.15,2013-09-01 13:43:00,
2013-09-01 09:44:00,74.9,73.7,29.96,SSE,160,3.0,4.0,96,0.00,,,0.01,Wunderground v.1.15,2013-09-01 13:44:00,
2013-09-01 09:45:00,75.0,73.5,29.96,SSW,198,1.0,4.0,95,0.00,,,0.01,Wunderground v.1.15,2013-09-01 13:45:00,
2013-09-01 09:47:00,75.2,73.7,29.96,SW,226,1.0,4.0,95,0.00,,,0.01,Wunderground v.1.15,2013-09-01 13:47:00,
2013-09-01 09:49:00,75.2,73.4,29.96,WNW,293,4.0,5.0,94,0.00,,,0.01,Wunderground v.1.15,2013-09-01 13:49:00,
2013-09-01 09:50:00,75.2,73.4,29.96,WSW,240,4.0,5.0,94,0.00,,,0.01,Wunderground v.1.15,2013-09-01 13:50:00,
2013-09-01 09:52:00,75.2,73.4,29.96,South,176,3.0,6.0,94,0.00,,,0.01,Wunderground v.1.15,2013-09-01 13:52:00,
2013-09-01 09:54:00,75.2,73.4,29.96,SSW,201,1.0,6.0,94,0.00,,,0.01,Wunderground v.1.15,2013-09-01 13:54:00,
2013-09-01 09:55:00,75.3,73.5,29.96,WSW,238,4.0,6.0,94,0.00,,,0.01,Wunderground v.1.15,2013-09-01 13:55:00,
2013-09-01 09:56:00,75.3,73.5,29.96,SW,235,2.0,6.0,94,0.00,,,0.01,Wunderground v.1.15,2013-09-01 13:56:00,
2013-09-01 09:57:00,75.4,73.6,29.97,SW,233,0.0,6.0,94,0.00,,,0.01,Wunderground v.1.15,2013-09-01 13:57:00,
2013-09-01 09:59:00,75.5,73.7,29.97,SW,215,2.0,6.0,94,0.00,,,0.01,Wunderground v.1.15,2013-09-01 13:59:00,
2013-09-01 10:00:00,75.6,73.8,29.97,WSW,248,2.0,3.0,94,0.00,,,0.01,Wunderground v.1.15,2013-09-01 14:00:00,
2013-09-01 10:01:00,75.6,73.8,29.97,WSW,240,2.0,3.0,94,0.00,,,0.01,Wunderground v.1.15,2013-09-01 14:01:00,
2013-09-01 10:02:00,75.6,73.4,29.97,SSW,212,2.0,6.0,93,0.00,,,0.01,Wunderground v.1.15,2013-09-01 14:02:00,
2013-09-01 10:04:00,75.7,73.5,29.97,SW,215,4.0,6.0,93,0.00,,,0.01,Wunderground v.1.15,2013-09-01 14:04:00,
2013-09-01 10:06:00,75.7,73.5,29.97,WSW,257,1.0,6.0,93,0.00,,,0.01,Wunderground v.1.15,2013-09-01 14:06:00,
2013-09-01 10:07:00,75.8,73.6,29.97,West,277,1.0,7.0,93,0.00,,,0.01,Wunderground v.1.15,2013-09-01 14:07:00,
2013-09-01 10:09:00,75.9,73.7,29.97,NW,322,0.0,7.0,93,0.00,,,0.01,Wunderground v.1.15,2013-09-01 14:09:00,
2013-09-01 10:11:00,76.0,74.1,29.97,SW,228,0.0,2.0,94,0.00,,,0.01,Wunderground v.1.15,2013-09-01 14:11:00,
2013-09-01 10:12:00,76.1,73.9,29.97,SW,215,0.0,2.0,93,0.00,,,0.01,Wunderground v.1.15,2013-09-01 14:12:00,
2013-09-01 10:14:00,76.1,73.6,29.97,West,266,2.0,8.0,92,0.00,,,0.01,Wunderground v.1.15,2013-09-01 14:14:00,
2013-09-01 10:15:00,76.1,73.9,29.97,SW,224,2.0,8.0,93,0.00,,,0.01,Wunderground v.1.15,2013-09-01 14:15:00,
2013-09-01 10:16:00,76.1,73.9,29.97,WSW,240,0.0,8.0,93,0.00,,,0.01,Wunderground v.1.15,2013-09-01 14:16:00,
2013-09-01 10:17:00,76.1,73.9,29.97,West,262,1.0,8.0,93,0.00,,,0.01,Wunderground v.1.15,2013-09-01 14:17:00,
2013-09-01 10:19:00,76.2,74.0,29.97,SW,221,4.0,8.0,93,0.00,,,0.01,Wunderground v.1.15,2013-09-01 14:19:00,
2013-09-01 10:20:00,76.2,73.7,29.97,SW,232,1.0,4.0,92,0.00,,,0.01,Wunderground v.1.15,2013-09-01 14:20:00,
2013-09-01 10:21:00,76.2,73.7,29.97,WSW,253,3.0,4.0,92,0.00,,,0.01,Wunderground v.1.15,2013-09-01 14:21:00,
2013-09-01 10:22:00,76.1,73.6,29.97,WSW,253,1.0,4.0,92,0.00,,,0.01,Wunderground v.1.15,2013-09-01 14:22:00,
2013-09-01 10:23:00,76.1,73.6,29.97,SW,215,1.0,4.0,92,0.00,,,0.01,Wunderground v.1.15,2013-09-01 14:23:00,
2013-09-01 10:24:00,76.2,73.7,29.97,WSW,253,2.0,5.0,92,0.00,,,0.01,Wunderground v.1.15,2013-09-01 14:24:00,
2013-09-01 10:25:00,76.2,73.7,29.97,SW,215,2.0,5.0,92,0.00,,,0.01,Wunderground v.1.15,2013-09-01 14:25:00,
2013-09-01 10:26:00,76.3,73.8,29.96,NE,53,1.0,5.0,92,0.00,,,0.01,Wunderground v.1.15,2013-09-01 14:26:00,
2013-09-01 10:27:00,76.4,73.9,29.96,WSW,242,6.0,6.0,92,0.00,,,0.01,Wunderground v.1.15,2013-09-01 14:27:00,
2013-09-01 10:28:00,76.4,73.9,29.96,WSW,253,2.0,6.0,92,0.00,,,0.01,Wunderground v.1.15,2013-09-01 14:28:00,
2013-09-01 10:29:00,76.5,73.7,29.96,SSW,202,3.0,8.0,91,0.00,,,0.01,Wunderground v.1.15,2013-09-01 14:29:00,
2013-09-01 10:30:00,76.6,73.8,29.96,SW,235,4.0,8.0,91,0.00,,,0.01,Wunderground v.1.15,2013-09-01 14:30:00,
2013-09-01 10:31:00,76.8,74.0,29.96,SSE,154,1.0,8.0,91,0.00,,,0.01,Wunderground v.1.15,2013-09-01 14:31:00,
2013-09-01 10:32:00,76.8,74.0,29.96,SSW,194,3.0,8.0,91,0.00,,,0.01,Wunderground v.1.15,2013-09-01 14:32:00,
2013-09-01 10:33:00,76.9,74.1,29.96,SSW,197,4.0,8.0,91,0.00,,,0.01,Wunderground v.1.15,2013-09-01 14:33:00,
2013-09-01 10:34:00,77.1,74.3,29.96,SW,218,5.0,8.0,91,0.00,,,0.01,Wunderground v.1.15,2013-09-01 14:34:00,
2013-09-01 10:35:00,77.3,74.5,29.96,SSW,210,6.0,8.0,91,0.00,,,0.01,Wunderground v.1.15,2013-09-01 14:35:00,
2013-09-01 10:36:00,77.4,74.2,29.96,SW,232,5.0,8.0,90,0.00,,,0.01,Wunderground v.1.15,2013-09-01 14:36:00,
2013-09-01 10:38:00,77.5,74.3,29.96,WSW,248,1.0,8.0,90,0.00,,,0.01,Wunderground v.1.15,2013-09-01 14:38:00,
2013-09-01 10:39:00,77.7,74.5,29.96,NW,325,4.0,8.0,90,0.00,,,0.01,Wunderground v.1.15,2013-09-01 14:39:00,
2013-09-01 10:40:00,77.7,74.2,29.96,SW,218,5.0,5.0,89,0.00,,,0.01,Wunderground v.1.15,2013-09-01 14:40:00,
2013-09-01 10:41:00,77.7,74.2,29.96,SSW,198,2.0,5.0,89,0.00,,,0.01,Wunderground v.1.15,2013-09-01 14:41:00,
2013-09-01 10:43:00,77.8,74.6,29.96,SSW,197,4.0,5.0,90,0.00,,,0.01,Wunderground v.1.15,2013-09-01 14:43:00,
2013-09-01 10:44:00,77.9,74.7,29.96,SW,218,2.0,5.0,90,0.00,,,0.01,Wunderground v.1.15,2013-09-01 14:44:00,
2013-09-01 10:46:00,78.0,74.8,29.96,SW,222,2.0,5.0,90,0.00,,,0.01,Wunderground v.1.15,2013-09-01 14:46:00,
2013-09-01 10:47:00,78.1,74.6,29.96,SW,232,1.0,5.0,89,0.00,,,0.01,Wunderground v.1.15,2013-09-01 14:47:00,
2013-09-01 10:48:00,78.2,75.0,29.96,WSW,255,5.0,5.0,90,0.00,,,0.01,Wunderground v.1.15,2013-09-01 14:48:00,
2013-09-01 10:49:00,78.3,74.8,29.96,WSW,242,6.0,6.0,89,0.00,,,0.01,Wunderground v.1.15,2013-09-01 14:49:00,
2013-09-01 10:51:00,78.3,74.8,29.96,West,275,2.0,4.0,89,0.00,,,0.01,Wunderground v.1.15,2013-09-01 14:51:00,
2013-09-01 10:52:00,78.4,74.9,29.96,ESE,113,1.0,4.0,89,0.00,,,0.01,Wunderground v.1.15,2013-09-01 14:52:00,
2013-09-01 10:53:00,78.4,75.2,29.96,ESE,113,0.0,4.0,90,0.00,,,0.01,Wunderground v.1.15,2013-09-01 14:53:00,
2013-09-01 10:54:00,78.5,75.3,29.95,SW,218,4.0,4.0,90,0.00,,,0.01,Wunderground v.1.15,2013-09-01 14:54:00,
2013-09-01 10:56:00,78.7,75.5,29.96,WSW,243,2.0,4.0,90,0.00,,,0.01,Wunderground v.1.15,2013-09-01 14:56:00,
2013-09-01 10:57:00,78.9,75.0,29.96,SSW,212,1.0,6.0,88,0.00,,,0.01,Wunderground v.1.15,2013-09-01 14:57:00,
2013-09-01 10:58:00,78.9,75.4,29.96,SSW,196,2.0,6.0,89,0.00,,,0.01,Wunderground v.1.15,2013-09-01 14:58:00,
2013-09-01 10:59:00,79.0,75.1,29.96,SSW,210,1.0,6.0,88,0.00,,,0.01,Wunderground v.1.15,2013-09-01 14:59:00,
2013-09-01 11:00:00,79.0,75.1,29.96,SW,217,1.0,2.0,88,0.00,,,0.01,Wunderground v.1.15,2013-09-01 15:00:00,
2013-09-01 11:01:00,79.1,75.6,29.96,SW,227,2.0,2.0,89,0.00,,,0.01,Wunderground v.1.15,2013-09-01 15:01:00,
2013-09-01 11:02:00,79.3,75.8,29.96,SSE,152,2.0,6.0,89,0.00,,,0.01,Wunderground v.1.15,2013-09-01 15:02:00,
2013-09-01 11:03:00,79.4,75.5,29.96,WSW,250,4.0,6.0,88,0.00,,,0.01,Wunderground v.1.15,2013-09-01 15:03:00,
2013-09-01 11:04:00,79.4,75.5,29.96,SSW,198,1.0,7.0,88,0.00,,,0.01,Wunderground v.1.15,2013-09-01 15:04:00,
2013-09-01 11:05:00,79.4,75.5,29.96,NW,322,1.0,7.0,88,0.00,,,0.01,Wunderground v.1.15,2013-09-01 15:05:00,
2013-09-01 11:06:00,79.5,75.6,29.96,SSW,203,2.0,7.0,88,0.00,,,0.01,Wunderground v.1.15,2013-09-01 15:06:00,
2013-09-01 11:07:00,79.6,75.4,29.96,SSW,194,5.0,7.0,87,0.00,,,0.01,Wunderground v.1.15,2013-09-01 15:07:00,
2013-09-01 11:08:00,79.6,75.4,29.96,SSW,202,3.0,7.0,87,0.00,,,0.01,Wunderground v.1.15,2013-09-01 15:08:00,
2013-09-01 11:09:00,79.7,75.5,29.96,SW,221,3.0,7.0,87,0.00,,,0.01,Wunderground v.1.15,2013-09-01 15:09:00,
2013-09-01 11:10:00,79.7,75.5,29.96,SW,225,5.0,5.0,87,0.00,,,0.01,Wunderground v.1.15,2013-09-01 15:10:00,
2013-09-01 11:11:00,79.8,75.6,29.96,WSW,246,2.0,5.0,87,0.00,,,0.01,Wunderground v.1.15,2013-09-01 15:11:00,
2013-09-01 11:12:00,80.0,75.8,29.96,WSW,250,2.0,5.0,87,0.00,,,0.01,Wunderground v.1.15,2013-09-01 15:12:00,
2013-09-01 11:13:00,80.0,75.8,29.96,SW,221,3.0,5.0,87,0.00,,,0.01,Wunderground v.1.15,2013-09-01 15:13:00,
2013-09-01 11:14:00,80.3,76.1,29.96,SW,226,2.0,7.0,87,0.00,,,0.01,Wunderground v.1.15,2013-09-01 15:14:00,
2013-09-01 11:15:00,80.3,76.1,29.96,WSW,253,2.0,7.0,87,0.00,,,0.01,Wunderground v.1.15,2013-09-01 15:15:00,
2013-09-01 11:16:00,80.4,76.2,29.96,SW,224,4.0,7.0,87,0.00,,,0.01,Wunderground v.1.15,2013-09-01 15:16:00,
2013-09-01 11:17:00,80.5,75.9,29.96,South,177,1.0,7.0,86,0.00,,,0.01,Wunderground v.1.15,2013-09-01 15:17:00,
2013-09-01 11:18:00,80.5,75.9,29.96,South,169,2.0,7.0,86,0.00,,,0.01,Wunderground v.1.15,2013-09-01 15:18:00,
2013-09-01 11:19:00,80.7,76.5,29.95,SW,232,1.0,7.0,87,0.00,,,0.01,Wunderground v.1.15,2013-09-01 15:19:00,
2013-09-01 11:20:00,80.7,76.1,29.95,West,259,2.0,3.0,86,0.00,,,0.01,Wunderground v.1.15,2013-09-01 15:20:00,
2013-09-01 11:21:00,80.9,76.3,29.96,South,173,2.0,3.0,86,0.00,,,0.01,Wunderground v.1.15,2013-09-01 15:21:00,
2013-09-01 11:22:00,81.0,75.7,29.96,WSW,250,7.0,7.0,84,0.00,,,0.01,Wunderground v.1.15,2013-09-01 15:22:00,
2013-09-01 11:23:00,81.0,75.7,29.96,WSW,246,3.0,7.0,84,0.00,,,0.01,Wunderground v.1.15,2013-09-01 15:23:00,
2013-09-01 11:24:00,81.0,75.7,29.96,West,266,3.0,10.0,84,0.00,,,0.01,Wunderground v.1.15,2013-09-01 15:24:00,
2013-09-01 11:25:00,81.0,75.7,29.95,South,190,1.0,10.0,84,0.00,,,0.01,Wunderground v.1.15,2013-09-01 15:25:00,
2013-09-01 11:26:00,81.0,76.1,29.96,NW,318,3.0,10.0,85,0.00,,,0.01,Wunderground v.1.15,2013-09-01 15:26:00,
2013-09-01 11:27:00,81.0,76.1,29.96,NW,308,2.0,10.0,85,0.00,,,0.01,Wunderground v.1.15,2013-09-01 15:27:00,
2013-09-01 11:28:00,81.0,76.1,29.96,WSW,245,2.0,10.0,85,0.00,,,0.01,Wunderground v.1.15,2013-09-01 15:28:00,
2013-09-01 11:29:00,81.0,75.7,29.95,WSW,253,6.0,10.0,84,0.00,,,0.01,Wunderground v.1.15,2013-09-01 15:29:00,
2013-09-01 11:30:00,81.0,75.7,29.95,NW,305,3.0,7.0,84,0.00,,,0.01,Wunderground v.1.15,2013-09-01 15:30:00,
2013-09-01 11:32:00,81.1,76.2,29.95,West,260,2.0,7.0,85,0.00,,,0.01,Wunderground v.1.15,2013-09-01 15:32:00,
2013-09-01 11:33:00,81.2,76.3,29.95,SW,233,9.0,9.0,85,0.00,,,0.01,Wunderground v.1.15,2013-09-01 15:33:00,
2013-09-01 11:35:00,81.2,75.9,29.95,West,274,1.0,9.0,84,0.00,,,0.01,Wunderground v.1.15,2013-09-01 15:35:00,
2013-09-01 11:36:00,81.3,76.0,29.95,ESE,117,3.0,9.0,84,0.00,,,0.01,Wunderground v.1.15,2013-09-01 15:36:00,
2013-09-01 11:37:00,81.4,76.5,29.95,WNW,291,1.0,9.0,85,0.00,,,0.01,Wunderground v.1.15,2013-09-01 15:37:00,
2013-09-01 11:38:00,81.6,76.6,29.95,NNW,333,0.0,9.0,85,0.00,,,0.01,Wunderground v.1.15,2013-09-01 15:38:00,
2013-09-01 11:40:00,81.8,76.5,29.95,WNW,291,3.0,3.0,84,0.00,,,0.01,Wunderground v.1.15,2013-09-01 15:40:00,
2013-09-01 11:41:00,81.9,76.6,29.95,SW,229,2.0,7.0,84,0.00,,,0.01,Wunderground v.1.15,2013-09-01 15:41:00,
2013-09-01 11:42:00,82.0,76.7,29.95,SW,222,8.0,8.0,84,0.00,,,0.01,Wunderground v.1.15,2013-09-01 15:42:00,
2013-09-01 11:43:00,82.0,76.3,29.95,WNW,297,4.0,8.0,83,0.00,,,0.01,Wunderground v.1.15,2013-09-01 15:43:00,
2013-09-01 11:45:00,82.1,76.8,29.95,SSW,204,1.0,8.0,84,0.00,,,0.01,Wunderground v.1.15,2013-09-01 15:45:00,
2013-09-01 11:46:00,82.2,76.9,29.95,West,259,5.0,8.0,84,0.00,,,0.01,Wunderground v.1.15,2013-09-01 15:46:00,
2013-09-01 11:47:00,82.3,76.3,29.95,South,181,4.0,8.0,82,0.00,,,0.01,Wunderground v.1.15,2013-09-01 15:47:00,
2013-09-01 11:48:00,82.3,76.3,29.95,WSW,255,3.0,8.0,82,0.00,,,0.01,Wunderground v.1.15,2013-09-01 15:48:00,
2013-09-01 11:50:00,82.3,76.3,29.95,SW,229,7.0,9.0,82,0.00,,,0.01,Wunderground v.1.15,2013-09-01 15:50:00,
2013-09-01 11:51:00,82.5,76.8,29.95,SE,132,3.0,9.0,83,0.00,,,0.01,Wunderground v.1.15,2013-09-01 15:51:00,
2013-09-01 11:52:00,82.7,76.6,29.95,East,100,2.0,9.0,82,0.00,,,0.01,Wunderground v.1.15,2013-09-01 15:52:00,
2013-09-01 11:53:00,82.8,76.7,29.95,East,101,3.0,9.0,82,0.00,,,0.01,Wunderground v.1.15,2013-09-01 15:53:00,
2013-09-01 11:55:00,83.1,77.0,29.95,SW,223,0.0,9.0,82,0.00,,,0.01,Wunderground v.1.15,2013-09-01 15:55:00,
2013-09-01 11:56:00,83.3,76.5,29.95,SW,226,4.0,9.0,80,0.00,,,0.01,Wunderground v.1.15,2013-09-01 15:56:00,
2013-09-01 11:57:00,83.3,76.1,29.95,SSW,200,6.0,9.0,79,0.00,,,0.01,Wunderground v.1.15,2013-09-01 15:57:00,
2013-09-01 11:58:00,83.3,76.5,29.95,SSE,158,3.0,9.0,80,0.00,,,0.01,Wunderground v.1.15,2013-09-01 15:58:00,
2013-09-01 12:00:00,83.3,76.1,29.95,West,271,2.0,4.0,79,0.00,,,0.01,Wunderground v.1.15,2013-09-01 16:00:00,
2013-09-01 12:01:00,83.5,77.1,29.95,WNW,290,2.0,4.0,81,0.00,,,0.01,Wunderground v.1.15,2013-09-01 16:01:00,
2013-09-01 12:02:00,83.7,77.6,29.95,SW,229,4.0,5.0,82,0.00,,,0.01,Wunderground v.1.15,2013-09-01 16:02:00,
2013-09-01 12:03:00,83.7,77.6,29.95,SW,226,3.0,5.0,82,0.00,,,0.01,Wunderground v.1.15,2013-09-01 16:03:00,
2013-09-01 12:05:00,83.9,77.1,29.95,SSW,210,7.0,7.0,80,0.00,,,0.01,Wunderground v.1.15,2013-09-01 16:05:00,
2013-09-01 12:07:00,83.9,76.3,29.95,WSW,238,4.0,10.0,78,0.00,,,0.01,Wunderground v.1.15,2013-09-01 16:07:00,
2013-09-01 12:08:00,84.0,76.4,29.95,SSW,210,2.0,10.0,78,0.00,,,0.01,Wunderground v.1.15,2013-09-01 16:08:00,
2013-09-01 12:10:00,84.1,76.1,29.94,WSW,256,7.0,8.0,77,0.00,,,0.01,Wunderground v.1.15,2013-09-01 16:10:00,
2013-09-01 12:12:00,84.0,75.6,29.94,SW,228,6.0,13.0,76,0.00,,,0.01,Wunderground v.1.15,2013-09-01 16:12:00,
2013-09-01 12:13:00,84.0,76.0,29.94,South,181,5.0,13.0,77,0.00,,,0.01,Wunderground v.1.15,2013-09-01 16:13:00,
2013-09-01 12:15:00,84.0,76.0,29.94,SW,235,8.0,13.0,77,0.00,,,0.01,Wunderground v.1.15,2013-09-01 16:15:00,
2013-09-01 12:17:00,83.9,75.9,29.94,West,262,3.0,13.0,77,0.00,,,0.01,Wunderground v.1.15,2013-09-01 16:17:00,
2013-09-01 12:18:00,83.9,76.3,29.94,WSW,243,8.0,13.0,78,0.00,,,0.01,Wunderground v.1.15,2013-09-01 16:18:00,
2013-09-01 12:20:00,83.9,76.3,29.94,South,184,2.0,6.0,78,0.00,,,0.01,Wunderground v.1.15,2013-09-01 16:20:00,
2013-09-01 12:22:00,84.0,76.0,29.95,WNW,286,4.0,12.0,77,0.00,,,0.01,Wunderground v.1.15,2013-09-01 16:22:00,
2013-09-01 12:23:00,84.1,76.1,29.95,SSW,200,4.0,12.0,77,0.00,,,0.01,Wunderground v.1.15,2013-09-01 16:23:00,
2013-09-01 12:24:00,84.0,75.6,29.94,SW,231,7.0,12.0,76,0.00,,,0.01,Wunderground v.1.15,2013-09-01 16:24:00,
2013-09-01 12:25:00,83.9,75.1,29.94,WSW,240,8.0,13.0,75,0.00,,,0.01,Wunderground v.1.15,2013-09-01 16:25:00,
2013-09-01 12:27:00,83.9,76.3,29.94,NNE,27,4.0,13.0,78,0.00,,,0.01,Wunderground v.1.15,2013-09-01 16:27:00,
2013-09-01 12:28:00,83.9,76.7,29.94,SE,131,6.0,13.0,79,0.00,,,0.01,Wunderground v.1.15,2013-09-01 16:28:00,
2013-09-01 12:29:00,84.0,76.8,29.94,West,269,4.0,13.0,79,0.00,,,0.01,Wunderground v.1.15,2013-09-01 16:29:00,
2013-09-01 12:30:00,84.0,76.0,29.94,SW,222,4.0,6.0,77,0.00,,,0.01,Wunderground v.1.15,2013-09-01 16:30:00,
2013-09-01 12:32:00,83.9,75.9,29.94,SW,225,7.0,11.0,77,0.00,,,0.01,Wunderground v.1.15,2013-09-01 16:32:00,
2013-09-01 12:33:00,83.9,75.9,29.94,SW,235,3.0,11.0,77,0.00,,,0.01,Wunderground v.1.15,2013-09-01 16:33:00,
2013-09-01 12:35:00,84.0,76.0,29.94,West,263,3.0,11.0,77,0.00,,,0.01,Wunderground v.1.15,2013-09-01 16:35:00,
2013-09-01 12:37:00,84.2,76.6,29.94,SSW,200,6.0,11.0,78,0.00,,,0.01,Wunderground v.1.15,2013-09-01 16:37:00,
2013-09-01 12:38:00,84.3,76.3,29.94,WNW,294,2.0,11.0,77,0.00,,,0.01,Wunderground v.1.15,2013-09-01 16:38:00,
2013-09-01 12:40:00,84.5,77.3,29.94,SW,218,6.0,6.0,79,0.00,,,0.01,Wunderground v.1.15,2013-09-01 16:40:00,
2013-09-01 12:42:00,84.5,76.5,29.94,SSE,156,4.0,9.0,77,0.00,,,0.01,Wunderground v.1.15,2013-09-01 16:42:00,
2013-09-01 12:43:00,84.6,77.0,29.94,SW,221,3.0,9.0,78,0.00,,,0.01,Wunderground v.1.15,2013-09-01 16:43:00,
2013-09-01 12:44:00,84.7,77.1,29.94,NW,309,4.0,9.0,78,0.00,,,0.01,Wunderground v.1.15,2013-09-01 16:44:00,
2013-09-01 12:45:00,84.8,77.2,29.94,West,267,2.0,9.0,78,0.00,,,0.01,Wunderground v.1.15,2013-09-01 16:45:00,
2013-09-01 12:47:00,84.7,76.3,29.93,SW,219,7.0,13.0,76,0.00,,,0.01,Wunderground v.1.15,2013-09-01 16:47:00,
2013-09-01 12:48:00,84.6,76.2,29.93,WNW,296,3.0,13.0,76,0.00,,,0.01,Wunderground v.1.15,2013-09-01 16:48:00,
2013-09-01 12:50:00,84.6,76.6,29.93,SW,235,5.0,6.0,77,0.00,,,0.01,Wunderground v.1.15,2013-09-01 16:50:00,
2013-09-01 12:52:00,84.5,76.5,29.93,SW,217,5.0,6.0,77,0.00,,,0.01,Wunderground v.1.15,2013-09-01 16:52:00,
2013-09-01 12:53:00,84.5,76.5,29.93,NW,308,2.0,8.0,77,0.00,,,0.01,Wunderground v.1.15,2013-09-01 16:53:00,
2013-09-01 12:54:00,84.5,76.5,29.93,WSW,246,2.0,8.0,77,0.00,,,0.01,Wunderground v.1.15,2013-09-01 16:54:00,
2013-09-01 12:55:00,84.5,76.9,29.93,West,277,0.0,8.0,78,0.00,,,0.01,Wunderground v.1.15,2013-09-01 16:55:00,
2013-09-01 12:56:00,84.6,77.4,29.93,SSW,207,2.0,8.0,79,0.00,,,0.01,Wunderground v.1.15,2013-09-01 16:56:00,
2013-09-01 12:57:00,84.7,77.1,29.93,SSW,194,2.0,8.0,78,0.00,,,0.01,Wunderground v.1.15,2013-09-01 16:57:00,
2013-09-01 12:58:00,84.8,77.2,29.93,SSW,204,5.0,8.0,78,0.00,,,0.01,Wunderground v.1.15,2013-09-01 16:58:00,
2013-09-01 12:59:00,84.8,76.8,29.93,SSE,150,8.0,8.0,77,0.00,,,0.01,Wunderground v.1.15,2013-09-01 16:59:00,
2013-09-01 13:00:00,84.8,76.8,29.93,WNW,288,3.0,4.0,77,0.00,,,0.01,Wunderground v.1.15,2013-09-01 17:00:00,
2013-09-01 13:02:00,84.8,76.8,29.93,SW,235,2.0,4.0,77,0.00,,,0.01,Wunderground v.1.15,2013-09-01 17:02:00,
2013-09-01 13:04:00,85.0,77.4,29.93,West,276,2.0,4.0,78,0.00,,,0.01,Wunderground v.1.15,2013-09-01 17:04:00,
2013-09-01 13:05:00,85.1,77.1,29.92,WSW,250,3.0,4.0,77,0.00,,,0.01,Wunderground v.1.15,2013-09-01 17:05:00,
2013-09-01 13:07:00,85.1,76.7,29.92,SW,227,2.0,4.0,76,0.00,,,0.01,Wunderground v.1.15,2013-09-01 17:07:00,
2013-09-01 13:08:00,85.2,77.2,29.92,WSW,255,2.0,4.0,77,0.00,,,0.01,Wunderground v.1.15,2013-09-01 17:08:00,
2013-09-01 13:09:00,85.2,77.2,29.92,North,1,10.0,10.0,77,0.00,,,0.01,Wunderground v.1.15,2013-09-01 17:09:00,
2013-09-01 13:10:00,85.3,76.9,29.92,SSE,148,1.0,2.0,76,0.00,,,0.01,Wunderground v.1.15,2013-09-01 17:10:00,
2013-09-01 13:12:00,85.4,77.4,29.92,WSW,256,3.0,7.0,77,0.00,,,0.01,Wunderground v.1.15,2013-09-01 17:12:00,
2013-09-01 13:13:00,85.4,77.0,29.92,SW,232,2.0,7.0,76,0.00,,,0.01,Wunderground v.1.15,2013-09-01 17:13:00,
2013-09-01 13:14:00,85.4,77.0,29.92,SW,224,7.0,8.0,76,0.00,,,0.01,Wunderground v.1.15,2013-09-01 17:14:00,
2013-09-01 13:15:00,85.4,76.6,29.92,SSW,212,3.0,8.0,75,0.00,,,0.01,Wunderground v.1.15,2013-09-01 17:15:00,
2013-09-01 13:16:00,85.4,76.6,29.92,WNW,300,4.0,8.0,75,0.00,,,0.01,Wunderground v.1.15,2013-09-01 17:16:00,
2013-09-01 13:17:00,85.4,76.6,29.92,SW,221,4.0,8.0,75,0.00,,,0.01,Wunderground v.1.15,2013-09-01 17:17:00,
2013-09-01 13:18:00,85.5,77.1,29.92,West,279,3.0,8.0,76,0.00,,,0.01,Wunderground v.1.15,2013-09-01 17:18:00,
2013-09-01 13:19:00,85.5,77.1,29.92,SSW,205,5.0,9.0,76,0.00,,,0.01,Wunderground v.1.15,2013-09-01 17:19:00,
2013-09-01 13:20:00,85.5,76.7,29.92,SSW,204,3.0,6.0,75,0.00,,,0.01,Wunderground v.1.15,2013-09-01 17:20:00,
2013-09-01 13:21:00,85.4,76.6,29.92,West,281,3.0,6.0,75,0.00,,,0.01,Wunderground v.1.15,2013-09-01 17:21:00,
2013-09-01 13:22:00,85.4,76.6,29.91,West,263,3.0,7.0,75,0.00,,,0.01,Wunderground v.1.15,2013-09-01 17:22:00,
2013-09-01 13:23:00,85.3,76.5,29.92,West,278,6.0,7.0,75,0.00,,,0.01,Wunderground v.1.15,2013-09-01 17:23:00,
2013-09-01 13:24:00,85.3,76.5,29.92,West,270,5.0,7.0,75,0.00,,,0.01,Wunderground v.1.15,2013-09-01 17:24:00,
2013-09-01 13:25:00,85.3,76.5,29.91,SW,231,3.0,7.0,75,0.00,,,0.01,Wunderground v.1.15,2013-09-01 17:25:00,
2013-09-01 13:26:00,85.3,76.9,29.92,West,266,3.0,7.0,76,0.00,,,0.01,Wunderground v.1.15,2013-09-01 17:26:00,
2013-09-01 13:27:00,85.4,77.0,29.92,SW,235,3.0,7.0,76,0.00,,,0.01,Wunderground v.1.15,2013-09-01 17:27:00,
2013-09-01 13:29:00,85.5,77.5,29.91,West,273,3.0,7.0,77,0.00,,,0.01,Wunderground v.1.15,2013-09-01 17:29:00,
2013-09-01 13:30:00,85.6,77.2,29.91,West,269,3.0,4.0,76,0.00,,,0.01,Wunderground v.1.15,2013-09-01 17:30:00,
2013-09-01 13:31:00,85.5,76.7,29.91,WNW,294,3.0,7.0,75,0.00,,,0.01,Wunderground v.1.15,2013-09-01 17:31:00,
2013-09-01 13:32:00,85.5,76.7,29.91,WSW,245,3.0,7.0,75,0.00,,,0.01,Wunderground v.1.15,2013-09-01 17:32:00,
2013-09-01 13:34:00,85.6,76.4,29.91,West,270,3.0,7.0,74,0.00,,,0.01,Wunderground v.1.15,2013-09-01 17:34:00,
2013-09-01 13:35:00,85.5,76.3,29.91,WSW,238,3.0,8.0,74,0.00,,,0.01,Wunderground v.1.15,2013-09-01 17:35:00,
2013-09-01 13:36:00,85.5,76.7,29.91,SW,229,6.0,8.0,75,0.00,,,0.01,Wunderground v.1.15,2013-09-01 17:36:00,
2013-09-01 13:37:00,85.5,76.7,29.91,West,267,4.0,8.0,75,0.00,,,0.01,Wunderground v.1.15,2013-09-01 17:37:00,
2013-09-01 13:39:00,85.6,76.8,29.91,SSW,210,1.0,8.0,75,0.00,,,0.01,Wunderground v.1.15,2013-09-01 17:39:00,
2013-09-01 13:40:00,85.6,77.2,29.91,SW,231,3.0,5.0,76,0.00,,,0.01,Wunderground v.1.15,2013-09-01 17:40:00,
2013-09-01 13:42:00,85.8,77.4,29.91,SW,227,3.0,5.0,76,0.00,,,0.01,Wunderground v.1.15,2013-09-01 17:42:00,
2013-09-01 13:43:00,85.9,76.6,29.91,SSW,212,2.0,5.0,74,0.00,,,0.01,Wunderground v.1.15,2013-09-01 17:43:00,
2013-09-01 13:44:00,86.0,77.1,29.91,West,262,2.0,5.0,75,0.00,,,0.01,Wunderground v.1.15,2013-09-01 17:44:00,
2013-09-01 13:45:00,86.0,77.1,29.91,NW,314,4.0,5.0,75,0.00,,,0.01,Wunderground v.1.15,2013-09-01 17:45:00,
2013-09-01 13:47:00,86.1,76.8,29.90,SW,217,5.0,12.0,74,0.00,,,0.01,Wunderground v.1.15,2013-09-01 17:47:00,
2013-09-01 13:48:00,86.2,76.9,29.90,SW,235,4.0,12.0,74,0.00,,,0.01,Wunderground v.1.15,2013-09-01 17:48:00,
2013-09-01 13:49:00,86.2,76.9,29.90,SW,221,5.0,12.0,74,0.00,,,0.01,Wunderground v.1.15,2013-09-01 17:49:00,
2013-09-01 13:50:00,86.2,76.9,29.90,West,279,4.0,4.0,74,0.00,,,0.01,Wunderground v.1.15,2013-09-01 17:50:00,
2013-09-01 13:52:00,86.2,76.9,29.90,NW,305,2.0,12.0,74,0.00,,,0.01,Wunderground v.1.15,2013-09-01 17:52:00,
2013-09-01 13:53:00,86.3,77.0,29.90,ESE,108,5.0,12.0,74,0.00,,,0.01,Wunderground v.1.15,2013-09-01 17:53:00,
2013-09-01 13:54:00,86.2,75.7,29.90,WSW,249,3.0,12.0,71,0.00,,,0.01,Wunderground v.1.15,2013-09-01 17:54:00,
2013-09-01 13:55:00,86.2,75.7,29.90,WSW,243,2.0,12.0,71,0.00,,,0.01,Wunderground v.1.15,2013-09-01 17:55:00,
2013-09-01 13:57:00,86.1,76.4,29.89,SW,225,3.0,12.0,73,0.00,,,0.01,Wunderground v.1.15,2013-09-01 17:57:00,
2013-09-01 13:58:00,86.2,75.7,29.89,WSW,253,8.0,12.0,71,0.00,,,0.01,Wunderground v.1.15,2013-09-01 17:58:00,
2013-09-01 13:59:00,86.1,76.4,29.90,West,267,2.0,12.0,73,0.00,,,0.01,Wunderground v.1.15,2013-09-01 17:59:00,
2013-09-01 14:00:00,86.1,77.2,29.90,SW,232,5.0,7.0,75,0.00,,,0.01,Wunderground v.1.15,2013-09-01 18:00:00,
2013-09-01 14:03:00,86.2,76.5,29.90,SW,229,5.0,7.0,73,0.00,,,0.01,Wunderground v.1.15,2013-09-01 18:03:00,
2013-09-01 14:04:00,86.3,76.6,29.90,NNW,333,4.0,7.0,73,0.00,,,0.01,Wunderground v.1.15,2013-09-01 18:04:00,
2013-09-01 14:05:00,86.3,76.6,29.90,SW,233,4.0,7.0,73,0.00,,,0.01,Wunderground v.1.15,2013-09-01 18:05:00,
2013-09-01 14:08:00,86.4,76.3,29.90,WSW,240,2.0,12.0,72,0.00,,,0.01,Wunderground v.1.15,2013-09-01 18:08:00,
2013-09-01 14:09:00,86.4,76.3,29.90,WNW,285,5.0,12.0,72,0.00,,,0.01,Wunderground v.1.15,2013-09-01 18:09:00,
2013-09-01 14:10:00,86.4,76.7,29.90,South,179,3.0,4.0,73,0.00,,,0.01,Wunderground v.1.15,2013-09-01 18:10:00,
2013-09-01 14:14:00,86.5,76.8,29.90,WSW,256,5.0,8.0,73,0.00,,,0.01,Wunderground v.1.15,2013-09-01 18:14:00,
2013-09-01 14:15:00,86.4,76.7,29.89,SW,233,3.0,8.0,73,0.00,,,0.01,Wunderground v.1.15,2013-09-01 18:15:00,
2013-09-01 14:19:00,86.3,77.0,29.89,SSW,196,3.0,9.0,74,0.00,,,0.01,Wunderground v.1.15,2013-09-01 18:19:00,
2013-09-01 14:20:00,86.3,76.6,29.89,SSE,162,4.0,7.0,73,0.00,,,0.01,Wunderground v.1.15,2013-09-01 18:20:00,
2013-09-01 14:21:00,86.3,77.4,29.90,SSW,207,2.0,7.0,75,0.00,,,0.01,Wunderground v.1.15,2013-09-01 18:21:00,
2013-09-01 14:24:00,86.5,76.4,29.90,NW,312,5.0,11.0,72,0.00,,,0.01,Wunderground v.1.15,2013-09-01 18:24:00,
2013-09-01 14:25:00,86.4,76.3,29.90,WNW,302,5.0,12.0,72,0.00,,,0.01,Wunderground v.1.15,2013-09-01 18:25:00,
2013-09-01 14:26:00,86.2,75.3,29.90,WSW,248,4.0,12.0,70,0.00,,,0.01,Wunderground v.1.15,2013-09-01 18:26:00,
2013-09-01 14:29:00,85.9,76.2,29.91,NNW,328,10.0,12.0,73,0.00,,,0.01,Wunderground v.1.15,2013-09-01 18:29:00,
2013-09-01 14:30:00,85.5,76.3,29.91,WNW,291,5.0,9.0,74,0.00,,,0.02,Wunderground v.1.15,2013-09-01 18:30:00,
2013-09-01 14:31:00,84.2,73.8,29.91,NNW,340,9.0,21.0,71,1.20,,,0.05,Wunderground v.1.15,2013-09-01 18:31:00,
2013-09-01 14:34:00,81.6,72.5,29.90,NW,325,1.0,21.0,74,0.56,,,0.08,Wunderground v.1.15,2013-09-01 18:34:00,
2013-09-01 14:35:00,81.3,73.0,29.90,NW,325,1.0,21.0,76,0.56,,,0.09,Wunderground v.1.15,2013-09-01 18:35:00,
2013-09-01 14:36:00,80.0,72.9,29.90,NW,307,1.0,21.0,79,0.24,,,0.09,Wunderground v.1.15,2013-09-01 18:36:00,
2013-09-01 14:39:00,78.7,73.5,29.90,NW,315,1.0,21.0,84,0.11,,,0.09,Wunderground v.1.15,2013-09-01 18:39:00,
2013-09-01 14:40:00,78.7,73.8,29.90,North,9,2.0,4.0,85,0.11,,,0.09,Wunderground v.1.15,2013-09-01 18:40:00,
2013-09-01 14:41:00,78.3,73.8,29.90,North,356,2.0,4.0,86,0.09,,,0.09,Wunderground v.1.15,2013-09-01 18:41:00,
2013-09-01 14:45:00,77.7,73.9,29.89,North,1,2.0,4.0,88,0.06,,,0.09,Wunderground v.1.15,2013-09-01 18:45:00,
2013-09-01 14:46:00,77.5,73.3,29.89,WNW,294,0.0,4.0,87,0.05,,,0.09,Wunderground v.1.15,2013-09-01 18:46:00,
2013-09-01 14:47:00,77.5,73.7,29.89,WNW,294,0.0,4.0,88,0.05,,,0.09,Wunderground v.1.15,2013-09-01 18:47:00,
2013-09-01 14:50:00,77.3,73.8,29.89,East,84,0.0,1.0,89,0.04,,,0.09,Wunderground v.1.15,2013-09-01 18:50:00,
2013-09-01 14:51:00,77.2,73.7,29.89,East,84,0.0,2.0,89,0.00,,,0.09,Wunderground v.1.15,2013-09-01 18:51:00,
2013-09-01 14:52:00,77.2,73.7,29.89,East,84,0.0,2.0,89,0.00,,,0.09,Wunderground v.1.15,2013-09-01 18:52:00,
2013-09-01 14:55:00,77.1,73.6,29.90,East,84,1.0,2.0,89,0.00,,,0.09,Wunderground v.1.15,2013-09-01 18:55:00,
2013-09-01 14:57:00,77.1,73.9,29.90,East,79,0.0,2.0,90,0.00,,,0.09,Wunderground v.1.15,2013-09-01 18:57:00,
2013-09-01 15:00:00,77.3,74.8,29.90,East,79,0.0,0.0,92,0.00,,,0.09,Wunderground v.1.15,2013-09-01 19:00:00,
2013-09-01 15:02:00,77.3,74.1,29.90,East,79,0.0,0.0,90,0.00,,,0.09,Wunderground v.1.15,2013-09-01 19:02:00,
2013-09-01 15:05:00,77.3,74.1,29.90,East,79,0.0,0.0,90,0.00,,,0.09,Wunderground v.1.15,2013-09-01 19:05:00,
2013-09-01 15:07:00,77.4,74.2,29.90,East,79,0.0,0.0,90,0.00,,,0.09,Wunderground v.1.15,2013-09-01 19:07:00,
2013-09-01 15:08:00,77.4,74.6,29.90,East,79,0.0,0.0,91,0.00,,,0.09,Wunderground v.1.15,2013-09-01 19:08:00,
2013-09-01 15:10:00,77.6,74.8,29.89,East,79,0.0,0.0,91,0.00,,,0.09,Wunderground v.1.15,2013-09-01 19:10:00,
2013-09-01 15:12:00,77.8,75.0,29.89,East,79,0.0,0.0,91,0.00,,,0.09,Wunderground v.1.15,2013-09-01 19:12:00,
2013-09-01 15:13:00,77.8,75.0,29.89,East,79,0.0,0.0,91,0.00,,,0.09,Wunderground v.1.15,2013-09-01 19:13:00,
2013-09-01 15:15:00,77.9,74.1,29.89,East,79,0.0,0.0,88,0.00,,,0.09,Wunderground v.1.15,2013-09-01 19:15:00,
2013-09-01 15:17:00,78.1,74.6,29.89,NE,53,0.0,1.0,89,0.00,,,0.09,Wunderground v.1.15,2013-09-01 19:17:00,
2013-09-01 15:19:00,78.2,75.0,29.90,NE,53,0.0,1.0,90,0.00,,,0.09,Wunderground v.1.15,2013-09-01 19:19:00,
2013-09-01 15:20:00,78.2,74.7,29.90,NE,53,0.0,0.0,89,0.00,,,0.09,Wunderground v.1.15,2013-09-01 19:20:00,
2013-09-01 15:22:00,78.4,75.6,29.89,South,180,1.0,3.0,91,0.00,,,0.09,Wunderground v.1.15,2013-09-01 19:22:00,
2013-09-01 15:24:00,78.5,75.3,29.89,WSW,246,2.0,4.0,90,0.00,,,0.09,Wunderground v.1.15,2013-09-01 19:24:00,
2013-09-01 15:25:00,78.6,75.1,29.90,SSW,196,1.0,6.0,89,0.00,,,0.09,Wunderground v.1.15,2013-09-01 19:25:00,
2013-09-01 15:26:00,78.8,75.3,29.90,SW,226,4.0,6.0,89,0.00,,,0.09,Wunderground v.1.15,2013-09-01 19:26:00,
2013-09-01 15:27:00,78.9,75.4,29.90,SW,235,6.0,8.0,89,0.00,,,0.09,Wunderground v.1.15,2013-09-01 19:27:00,
2013-09-01 15:29:00,79.0,75.1,29.90,SE,142,2.0,8.0,88,0.00,,,0.09,Wunderground v.1.15,2013-09-01 19:29:00,
2013-09-01 15:30:00,79.0,75.1,29.90,WSW,255,2.0,4.0,88,0.00,,,0.09,Wunderground v.1.15,2013-09-01 19:30:00,
2013-09-01 15:31:00,79.0,74.8,29.90,North,354,2.0,10.0,87,0.00,,,0.09,Wunderground v.1.15,2013-09-01 19:31:00,
2013-09-01 15:32:00,79.0,75.1,29.90,West,274,2.0,10.0,88,0.00,,,0.09,Wunderground v.1.15,2013-09-01 19:32:00,
2013-09-01 15:34:00,78.9,75.0,29.90,South,188,2.0,10.0,88,0.00,,,0.10,Wunderground v.1.15,2013-09-01 19:34:00,
2013-09-01 15:35:00,78.8,74.6,29.90,SW,225,5.0,10.0,87,0.00,,,0.10,Wunderground v.1.15,2013-09-01 19:35:00,
2013-09-01 15:36:00,78.7,74.5,29.89,South,176,7.0,10.0,87,0.00,,,0.10,Wunderground v.1.15,2013-09-01 19:36:00,
2013-09-01 15:37:00,78.5,74.6,29.90,SSW,203,2.0,10.0,88,0.00,,,0.10,Wunderground v.1.15,2013-09-01 19:37:00,
2013-09-01 15:38:00,78.5,74.6,29.90,SW,228,1.0,10.0,88,0.00,,,0.10,Wunderground v.1.15,2013-09-01 19:38:00,
2013-09-01 15:40:00,78.3,74.8,29.90,SSW,198,1.0,4.0,89,0.00,,,0.10,Wunderground v.1.15,2013-09-01 19:40:00,
2013-09-01 15:41:00,78.3,74.8,29.90,WSW,249,7.0,9.0,89,0.00,,,0.10,Wunderground v.1.15,2013-09-01 19:41:00,
2013-09-01 15:42:00,78.2,75.0,29.90,SW,224,5.0,9.0,90,0.00,,,0.10,Wunderground v.1.15,2013-09-01 19:42:00,
2013-09-01 15:43:00,78.1,74.6,29.90,West,271,3.0,9.0,89,0.00,,,0.10,Wunderground v.1.15,2013-09-01 19:43:00,
2013-09-01 15:45:00,78.0,74.5,29.89,West,264,2.0,9.0,89,0.00,,,0.10,Wunderground v.1.15,2013-09-01 19:45:00,
2013-09-01 15:46:00,78.0,74.8,29.89,South,191,2.0,9.0,90,0.00,,,0.10,Wunderground v.1.15,2013-09-01 19:46:00,
2013-09-01 15:48:00,78.0,74.8,29.89,SE,136,4.0,9.0,90,0.00,,,0.10,Wunderground v.1.15,2013-09-01 19:48:00,
2013-09-01 15:50:00,78.0,75.2,29.89,WSW,246,2.0,7.0,91,0.00,,,0.10,Wunderground v.1.15,2013-09-01 19:50:00,
2013-09-01 15:51:00,78.0,75.2,29.89,WSW,243,2.0,7.0,91,0.00,,,0.10,Wunderground v.1.15,2013-09-01 19:51:00,
2013-09-01 15:53:00,78.0,75.2,29.89,SW,229,6.0,10.0,91,0.00,,,0.10,Wunderground v.1.15,2013-09-01 19:53:00,
2013-09-01 15:54:00,78.0,74.5,29.89,SSW,197,4.0,10.0,89,0.00,,,0.10,Wunderground v.1.15,2013-09-01 19:54:00,
2013-09-01 15:55:00,78.0,74.2,29.89,SW,225,6.0,10.0,88,0.00,,,0.10,Wunderground v.1.15,2013-09-01 19:55:00,
2013-09-01 15:56:00,78.0,74.5,29.89,SSW,205,3.0,10.0,89,0.00,,,0.10,Wunderground v.1.15,2013-09-01 19:56:00,
2013-09-01 15:58:00,78.0,74.2,29.89,WSW,245,4.0,10.0,88,0.00,,,0.10,Wunderground v.1.15,2013-09-01 19:58:00,
2013-09-01 15:59:00,78.1,74.3,29.88,South,188,2.0,10.0,88,0.00,,,0.10,Wunderground v.1.15,2013-09-01 19:59:00,
2013-09-01 16:00:00,78.1,73.9,29.88,WSW,239,3.0,8.0,87,0.00,,,0.10,Wunderground v.1.15,2013-09-01 20:00:00,
2013-09-01 16:01:00,78.1,73.9,29.88,WSW,248,4.0,8.0,87,0.00,,,0.10,Wunderground v.1.15,2013-09-01 20:01:00,
2013-09-01 16:03:00,78.1,74.3,29.88,WSW,257,2.0,9.0,88,0.00,,,0.10,Wunderground v.1.15,2013-09-01 20:03:00,
2013-09-01 16:04:00,78.2,74.0,29.88,SSW,204,3.0,9.0,87,0.00,,,0.10,Wunderground v.1.15,2013-09-01 20:04:00,
2013-09-01 16:05:00,78.2,74.4,29.88,SSW,207,5.0,9.0,88,0.00,,,0.10,Wunderground v.1.15,2013-09-01 20:05:00,
2013-09-01 16:06:00,78.2,74.4,29.88,SW,233,6.0,9.0,88,0.00,,,0.10,Wunderground v.1.15,2013-09-01 20:06:00,
2013-09-01 16:08:00,78.1,73.9,29.88,South,188,3.0,9.0,87,0.00,,,0.10,Wunderground v.1.15,2013-09-01 20:08:00,
2013-09-01 16:10:00,78.1,73.6,29.87,South,176,3.0,4.0,86,0.00,,,0.10,Wunderground v.1.15,2013-09-01 20:10:00,
2013-09-01 16:11:00,78.1,73.9,29.87,SW,225,3.0,5.0,87,0.00,,,0.10,Wunderground v.1.15,2013-09-01 20:11:00,
2013-09-01 16:13:00,78.1,73.9,29.86,SSW,200,5.0,5.0,87,0.00,,,0.10,Wunderground v.1.15,2013-09-01 20:13:00,
2013-09-01 16:15:00,78.2,73.7,29.86,West,259,2.0,6.0,86,0.00,,,0.10,Wunderground v.1.15,2013-09-01 20:15:00,
2013-09-01 16:16:00,78.2,74.0,29.86,WSW,243,1.0,6.0,87,0.00,,,0.10,Wunderground v.1.15,2013-09-01 20:16:00,
2013-09-01 16:18:00,78.2,73.7,29.87,SW,232,3.0,9.0,86,0.00,,,0.10,Wunderground v.1.15,2013-09-01 20:18:00,
2013-09-01 16:20:00,78.2,74.0,29.87,WSW,238,6.0,6.0,87,0.00,,,0.10,Wunderground v.1.15,2013-09-01 20:20:00,
2013-09-01 16:21:00,78.1,73.6,29.87,SW,235,4.0,6.0,86,0.00,,,0.10,Wunderground v.1.15,2013-09-01 20:21:00,
2013-09-01 16:24:00,78.1,73.6,29.87,SW,229,4.0,7.0,86,0.00,,,0.10,Wunderground v.1.15,2013-09-01 20:24:00,
2013-09-01 16:25:00,78.1,73.6,29.87,South,181,5.0,7.0,86,0.00,,,0.10,Wunderground v.1.15,2013-09-01 20:25:00,
2013-09-01 16:26:00,78.0,73.5,29.87,WSW,253,4.0,7.0,86,0.00,,,0.10,Wunderground v.1.15,2013-09-01 20:26:00,
2013-09-01 16:30:00,78.1,73.6,29.87,SW,225,3.0,4.0,86,0.00,,,0.10,Wunderground v.1.15,2013-09-01 20:30:00,
2013-09-01 16:31:00,78.1,73.6,29.87,West,274,2.0,6.0,86,0.00,,,0.10,Wunderground v.1.15,2013-09-01 20:31:00,
2013-09-01 16:35:00,78.5,74.0,29.88,SW,232,6.0,7.0,86,0.00,,,0.10,Wunderground v.1.15,2013-09-01 20:35:00,
2013-09-01 16:36:00,78.5,73.6,29.88,SW,223,5.0,7.0,85,0.00,,,0.10,Wunderground v.1.15,2013-09-01 20:36:00,
2013-09-01 16:41:00,78.5,73.6,29.87,WSW,256,6.0,8.0,85,0.00,,,0.10,Wunderground v.1.15,2013-09-01 20:41:00,
2013-09-01 16:42:00,78.4,73.2,29.87,SW,229,3.0,8.0,84,0.00,,,0.10,Wunderground v.1.15,2013-09-01 20:42:00,
2013-09-01 16:46:00,78.4,73.5,29.87,ESE,117,0.0,8.0,85,0.00,,,0.10,Wunderground v.1.15,2013-09-01 20:46:00,
2013-09-01 16:47:00,78.5,74.0,29.87,SW,232,2.0,8.0,86,0.00,,,0.10,Wunderground v.1.15,2013-09-01 20:47:00,
2013-09-01 16:51:00,78.5,74.0,29.87,SSE,164,4.0,6.0,86,0.00,,,0.10,Wunderground v.1.15,2013-09-01 20:51:00,
2013-09-01 16:52:00,78.5,73.6,29.87,SW,226,4.0,6.0,85,0.00,,,0.10,Wunderground v.1.15,2013-09-01 20:52:00,
2013-09-01 16:56:00,78.6,74.1,29.87,SE,145,1.0,6.0,86,0.00,,,0.10,Wunderground v.1.15,2013-09-01 20:56:00,
2013-09-01 16:57:00,78.7,74.5,29.87,SSW,207,2.0,6.0,87,0.00,,,0.10,Wunderground v.1.15,2013-09-01 20:57:00,
2013-09-01 17:01:00,79.0,74.5,29.86,SSW,194,3.0,5.0,86,0.00,,,0.10,Wunderground v.1.15,2013-09-01 21:01:00,
2013-09-01 17:02:00,79.0,74.5,29.86,SW,229,3.0,5.0,86,0.00,,,0.10,Wunderground v.1.15,2013-09-01 21:02:00,
2013-09-01 17:06:00,79.2,75.0,29.86,NNE,26,2.0,5.0,87,0.00,,,0.10,Wunderground v.1.15,2013-09-01 21:06:00,
2013-09-01 17:07:00,79.2,74.6,29.86,South,176,2.0,5.0,86,0.00,,,0.10,Wunderground v.1.15,2013-09-01 21:07:00,
2013-09-01 17:08:00,79.3,75.1,29.86,SW,235,3.0,5.0,87,0.00,,,0.10,Wunderground v.1.15,2013-09-01 21:08:00,
2013-09-01 17:11:00,79.5,74.9,29.85,WSW,248,3.0,3.0,86,0.00,,,0.10,Wunderground v.1.15,2013-09-01 21:11:00,
2013-09-01 17:12:00,79.5,75.3,29.85,SSW,212,1.0,3.0,87,0.00,,,0.10,Wunderground v.1.15,2013-09-01 21:12:00,
2013-09-01 17:13:00,79.6,75.4,29.85,SW,218,1.0,3.0,87,0.00,,,0.10,Wunderground v.1.15,2013-09-01 21:13:00,
2013-09-01 17:14:00,79.8,75.2,29.85,West,262,1.0,5.0,86,0.00,,,0.10,Wunderground v.1.15,2013-09-01 21:14:00,
2013-09-01 17:16:00,80.0,75.4,29.85,SW,226,2.0,5.0,86,0.00,,,0.10,Wunderground v.1.15,2013-09-01 21:16:00,
2013-09-01 17:17:00,80.0,75.4,29.85,SW,226,1.0,5.0,86,0.00,,,0.10,Wunderground v.1.15,2013-09-01 21:17:00,
2013-09-01 17:18:00,80.2,75.3,29.85,SSW,201,5.0,5.0,85,0.00,,,0.10,Wunderground v.1.15,2013-09-01 21:18:00,
2013-09-01 17:19:00,80.2,75.3,29.85,South,169,2.0,5.0,85,0.00,,,0.10,Wunderground v.1.15,2013-09-01 21:19:00,
2013-09-01 17:21:00,80.4,75.5,29.85,WSW,238,3.0,5.0,85,0.00,,,0.10,Wunderground v.1.15,2013-09-01 21:21:00,
2013-09-01 17:22:00,80.4,75.5,29.85,WSW,250,3.0,6.0,85,0.00,,,0.10,Wunderground v.1.15,2013-09-01 21:22:00,
2013-09-01 17:23:00,80.5,75.6,29.85,South,184,6.0,6.0,85,0.00,,,0.10,Wunderground v.1.15,2013-09-01 21:23:00,
2013-09-01 17:24:00,80.6,75.3,29.85,WSW,248,3.0,7.0,84,0.00,,,0.10,Wunderground v.1.15,2013-09-01 21:24:00,
2013-09-01 17:26:00,80.6,75.3,29.85,WSW,238,1.0,7.0,84,0.00,,,0.10,Wunderground v.1.15,2013-09-01 21:26:00,
2013-09-01 17:27:00,80.6,75.3,29.85,SW,221,1.0,7.0,84,0.00,,,0.10,Wunderground v.1.15,2013-09-01 21:27:00,
2013-09-01 17:28:00,80.7,75.8,29.85,WSW,243,0.0,7.0,85,0.00,,,0.10,Wunderground v.1.15,2013-09-01 21:28:00,
2013-09-01 17:29:00,81.0,76.4,29.85,SSE,166,3.0,7.0,86,0.00,,,0.10,Wunderground v.1.15,2013-09-01 21:29:00,
2013-09-01 17:31:00,81.3,76.4,29.85,WNW,302,4.0,5.0,85,0.00,,,0.10,Wunderground v.1.15,2013-09-01 21:31:00,
2013-09-01 17:32:00,81.3,76.4,29.85,WSW,256,6.0,6.0,85,0.00,,,0.10,Wunderground v.1.15,2013-09-01 21:32:00,
2013-09-01 17:33:00,81.4,76.1,29.85,SSW,204,5.0,8.0,84,0.00,,,0.10,Wunderground v.1.15,2013-09-01 21:33:00,
2013-09-01 17:34:00,81.3,76.0,29.85,SW,229,4.0,8.0,84,0.00,,,0.10,Wunderground v.1.15,2013-09-01 21:34:00,
2013-09-01 17:37:00,81.5,76.2,29.85,South,191,4.0,8.0,84,0.00,,,0.10,Wunderground v.1.15,2013-09-01 21:37:00,
2013-09-01 17:38:00,81.7,76.4,29.85,SSW,201,7.0,8.0,84,0.00,,,0.10,Wunderground v.1.15,2013-09-01 21:38:00,
2013-09-01 17:40:00,81.8,76.1,29.85,WSW,242,7.0,7.0,83,0.00,,,0.10,Wunderground v.1.15,2013-09-01 21:40:00,
2013-09-01 17:42:00,81.8,75.8,29.85,SSE,160,3.0,8.0,82,0.00,,,0.10,Wunderground v.1.15,2013-09-01 21:42:00,
2013-09-01 17:43:00,81.8,76.1,29.86,SSW,210,2.0,8.0,83,0.00,,,0.10,Wunderground v.1.15,2013-09-01 21:43:00,
2013-09-01 17:44:00,81.8,76.1,29.86,SSW,202,1.0,8.0,83,0.00,,,0.10,Wunderground v.1.15,2013-09-01 21:44:00,
2013-09-01 17:45:00,81.9,76.2,29.85,SW,217,1.0,8.0,83,0.00,,,0.10,Wunderground v.1.15,2013-09-01 21:45:00,
2013-09-01 17:47:00,81.9,76.6,29.86,SW,225,1.0,8.0,84,0.00,,,0.10,Wunderground v.1.15,2013-09-01 21:47:00,
2013-09-01 17:49:00,82.0,76.3,29.86,SW,235,2.0,8.0,83,0.00,,,0.10,Wunderground v.1.15,2013-09-01 21:49:00,
2013-09-01 17:50:00,81.9,76.2,29.86,WSW,238,5.0,7.0,83,0.00,,,0.10,Wunderground v.1.15,2013-09-01 21:50:00,
2013-09-01 17:52:00,81.9,76.6,29.86,WSW,246,6.0,7.0,84,0.00,,,0.10,Wunderground v.1.15,2013-09-01 21:52:00,
2013-09-01 17:54:00,81.8,76.5,29.86,SSW,205,2.0,7.0,84,0.00,,,0.10,Wunderground v.1.15,2013-09-01 21:54:00,
2013-09-01 17:55:00,81.7,76.0,29.86,WSW,239,7.0,7.0,83,0.00,,,0.10,Wunderground v.1.15,2013-09-01 21:55:00,
2013-09-01 17:57:00,81.7,76.4,29.86,South,191,1.0,7.0,84,0.00,,,0.10,Wunderground v.1.15,2013-09-01 21:57:00,
2013-09-01 17:59:00,81.6,75.9,29.86,West,264,2.0,7.0,83,0.00,,,0.10,Wunderground v.1.15,2013-09-01 21:59:00,
2013-09-01 18:00:00,81.6,75.9,29.86,SW,218,2.0,4.0,83,0.00,,,0.10,Wunderground v.1.15,2013-09-01 22:00:00,
2013-09-01 18:01:00,81.6,76.3,29.86,SSW,200,3.0,4.0,84,0.00,,,0.10,Wunderground v.1.15,2013-09-01 22:01:00,
2013-09-01 18:02:00,81.5,76.2,29.86,NW,319,1.0,5.0,84,0.00,,,0.10,Wunderground v.1.15,2013-09-01 22:02:00,
2013-09-01 18:03:00,81.5,76.2,29.86,SSW,210,2.0,5.0,84,0.00,,,0.10,Wunderground v.1.15,2013-09-01 22:03:00,
2013-09-01 18:05:00,81.5,76.2,29.86,SW,221,1.0,7.0,84,0.00,,,0.10,Wunderground v.1.15,2013-09-01 22:05:00,
2013-09-01 18:06:00,81.5,76.6,29.86,SW,222,0.0,7.0,85,0.00,,,0.10,Wunderground v.1.15,2013-09-01 22:06:00,
2013-09-01 18:07:00,81.5,76.6,29.86,SSW,202,1.0,7.0,85,0.00,,,0.10,Wunderground v.1.15,2013-09-01 22:07:00,
2013-09-01 18:08:00,81.5,76.6,29.86,SW,222,1.0,7.0,85,0.00,,,0.10,Wunderground v.1.15,2013-09-01 22:08:00,
2013-09-01 18:10:00,81.6,76.3,29.86,SW,222,1.0,3.0,84,0.00,,,0.10,Wunderground v.1.15,2013-09-01 22:10:00,
2013-09-01 18:11:00,81.6,76.6,29.86,WSW,257,0.0,3.0,85,0.00,,,0.10,Wunderground v.1.15,2013-09-01 22:11:00,
2013-09-01 18:12:00,81.7,76.7,29.86,WSW,258,0.0,3.0,85,0.00,,,0.10,Wunderground v.1.15,2013-09-01 22:12:00,
2013-09-01 18:15:00,81.7,76.4,29.86,WSW,246,1.0,4.0,84,0.00,,,0.10,Wunderground v.1.15,2013-09-01 22:15:00,
2013-09-01 18:16:00,81.7,76.4,29.86,WSW,243,2.0,4.0,84,0.00,,,0.10,Wunderground v.1.15,2013-09-01 22:16:00,
2013-09-01 18:17:00,81.7,76.4,29.86,WSW,243,2.0,4.0,84,0.00,,,0.10,Wunderground v.1.15,2013-09-01 22:17:00,
2013-09-01 18:20:00,81.9,76.6,29.86,WSW,238,1.0,3.0,84,0.00,,,0.10,Wunderground v.1.15,2013-09-01 22:20:00,
2013-09-01 18:22:00,82.0,76.7,29.86,SSW,194,0.0,3.0,84,0.00,,,0.10,Wunderground v.1.15,2013-09-01 22:22:00,
2013-09-01 18:23:00,82.1,76.4,29.86,SW,232,2.0,3.0,83,0.00,,,0.10,Wunderground v.1.15,2013-09-01 22:23:00,
2013-09-01 18:26:00,82.3,76.6,29.86,WSW,253,3.0,4.0,83,0.00,,,0.10,Wunderground v.1.15,2013-09-01 22:26:00,
2013-09-01 18:27:00,82.2,76.5,29.86,SW,235,2.0,7.0,83,0.00,,,0.10,Wunderground v.1.15,2013-09-01 22:27:00,
2013-09-01 18:28:00,82.2,76.5,29.86,SW,235,1.0,7.0,83,0.00,,,0.10,Wunderground v.1.15,2013-09-01 22:28:00,
2013-09-01 18:31:00,82.1,76.4,29.86,SW,229,3.0,3.0,83,0.00,,,0.10,Wunderground v.1.15,2013-09-01 22:31:00,
2013-09-01 18:32:00,82.1,76.8,29.86,WSW,240,2.0,4.0,84,0.00,,,0.10,Wunderground v.1.15,2013-09-01 22:32:00,
2013-09-01 18:33:00,82.0,76.7,29.86,WSW,256,3.0,4.0,84,0.00,,,0.10,Wunderground v.1.15,2013-09-01 22:33:00,
2013-09-01 18:36:00,82.0,76.3,29.86,WSW,246,3.0,6.0,83,0.00,,,0.10,Wunderground v.1.15,2013-09-01 22:36:00,
2013-09-01 18:37:00,81.9,76.2,29.86,SW,233,3.0,6.0,83,0.00,,,0.10,Wunderground v.1.15,2013-09-01 22:37:00,
2013-09-01 18:38:00,81.9,76.2,29.86,SSW,210,1.0,6.0,83,0.00,,,0.10,Wunderground v.1.15,2013-09-01 22:38:00,
2013-09-01 18:41:00,82.0,76.3,29.86,South,172,1.0,5.0,83,0.00,,,0.10,Wunderground v.1.15,2013-09-01 22:41:00,
2013-09-01 18:42:00,81.9,76.2,29.86,SE,132,2.0,5.0,83,0.00,,,0.10,Wunderground v.1.15,2013-09-01 22:42:00,
2013-09-01 18:43:00,81.9,76.2,29.86,South,172,1.0,5.0,83,0.00,,,0.10,Wunderground v.1.15,2013-09-01 22:43:00,
2013-09-01 18:46:00,81.8,76.1,29.87,SW,229,5.0,6.0,83,0.00,,,0.10,Wunderground v.1.15,2013-09-01 22:46:00,
2013-09-01 18:47:00,81.7,76.0,29.87,WNW,284,3.0,6.0,83,0.00,,,0.10,Wunderground v.1.15,2013-09-01 22:47:00,
2013-09-01 18:48:00,81.7,76.0,29.87,WSW,257,1.0,6.0,83,0.00,,,0.10,Wunderground v.1.15,2013-09-01 22:48:00,
2013-09-01 18:51:00,81.4,76.1,29.87,WSW,253,3.0,6.0,84,0.00,,,0.10,Wunderground v.1.15,2013-09-01 22:51:00,
2013-09-01 18:52:00,81.4,76.1,29.87,SSW,194,8.0,8.0,84,0.00,,,0.10,Wunderground v.1.15,2013-09-01 22:52:00,
2013-09-01 18:53:00,81.4,76.1,29.87,SW,229,7.0,9.0,84,0.00,,,0.10,Wunderground v.1.15,2013-09-01 22:53:00,
2013-09-01 18:56:00,81.3,76.4,29.87,SE,132,0.0,9.0,85,0.00,,,0.10,Wunderground v.1.15,2013-09-01 22:56:00,
2013-09-01 18:57:00,81.3,76.4,29.87,SE,132,0.0,9.0,85,0.00,,,0.10,Wunderground v.1.15,2013-09-01 22:57:00,
2013-09-01 18:58:00,81.3,76.7,29.87,SE,133,0.0,9.0,86,0.00,,,0.10,Wunderground v.1.15,2013-09-01 22:58:00,
2013-09-01 19:02:00,81.4,76.5,29.87,SW,215,0.0,2.0,85,0.00,,,0.10,Wunderground v.1.15,2013-09-01 23:02:00,
2013-09-01 19:03:00,81.4,76.5,29.86,SSW,202,0.0,2.0,85,0.00,,,0.10,Wunderground v.1.15,2013-09-01 23:03:00,
2013-09-01 19:04:00,81.5,76.6,29.87,South,191,3.0,4.0,85,0.00,,,0.10,Wunderground v.1.15,2013-09-01 23:04:00,
2013-09-01 19:07:00,81.5,76.6,29.87,SW,235,0.0,4.0,85,0.00,,,0.10,Wunderground v.1.15,2013-09-01 23:07:00,
2013-09-01 19:08:00,81.5,76.6,29.87,SW,235,0.0,4.0,85,0.00,,,0.10,Wunderground v.1.15,2013-09-01 23:08:00,
2013-09-01 19:09:00,81.5,76.6,29.87,NW,311,1.0,4.0,85,0.00,,,0.10,Wunderground v.1.15,2013-09-01 23:09:00,
2013-09-01 19:12:00,81.4,76.5,29.87,NW,311,0.0,1.0,85,0.00,,,0.10,Wunderground v.1.15,2013-09-01 23:12:00,
2013-09-01 19:13:00,81.4,76.5,29.87,NW,312,0.0,1.0,85,0.00,,,0.10,Wunderground v.1.15,2013-09-01 23:13:00,
2013-09-01 19:14:00,81.4,76.5,29.87,North,1,1.0,1.0,85,0.00,,,0.10,Wunderground v.1.15,2013-09-01 23:14:00,
2013-09-01 19:17:00,81.2,76.3,29.87,SSW,210,1.0,1.0,85,0.00,,,0.10,Wunderground v.1.15,2013-09-01 23:17:00,
2013-09-01 19:18:00,81.2,76.3,29.87,SW,215,2.0,2.0,85,0.00,,,0.10,Wunderground v.1.15,2013-09-01 23:18:00,
2013-09-01 19:19:00,81.1,76.2,29.87,SW,226,0.0,2.0,85,0.00,,,0.10,Wunderground v.1.15,2013-09-01 23:19:00,
2013-09-01 19:22:00,80.9,76.3,29.88,SW,228,1.0,1.0,86,0.00,,,0.10,Wunderground v.1.15,2013-09-01 23:22:00,
2013-09-01 19:23:00,80.9,76.3,29.88,SW,227,0.0,1.0,86,0.00,,,0.10,Wunderground v.1.15,2013-09-01 23:23:00,
2013-09-01 19:24:00,80.8,75.9,29.88,SW,228,0.0,1.0,85,0.00,,,0.10,Wunderground v.1.15,2013-09-01 23:24:00,
2013-09-01 19:27:00,80.6,76.0,29.88,East,98,0.0,1.0,86,0.00,,,0.10,Wunderground v.1.15,2013-09-01 23:27:00,
2013-09-01 19:28:00,80.6,76.0,29.88,East,98,0.0,1.0,86,0.00,,,0.10,Wunderground v.1.15,2013-09-01 23:28:00,
2013-09-01 19:29:00,80.5,75.9,29.88,East,98,0.0,1.0,86,0.00,,,0.10,Wunderground v.1.15,2013-09-01 23:29:00,
2013-09-01 19:32:00,80.3,76.1,29.88,East,98,0.0,0.0,87,0.00,,,0.10,Wunderground v.1.15,2013-09-01 23:32:00,
2013-09-01 19:33:00,80.3,76.4,29.88,East,98,0.0,0.0,88,0.00,,,0.10,Wunderground v.1.15,2013-09-01 23:33:00,
2013-09-01 19:34:00,80.2,76.3,29.88,East,98,0.0,0.0,88,0.00,,,0.10,Wunderground v.1.15,2013-09-01 23:34:00,
2013-09-01 19:35:00,80.0,76.1,29.88,East,98,0.0,0.0,88,0.00,,,0.10,Wunderground v.1.15,2013-09-01 23:35:00,
2013-09-01 19:37:00,79.8,75.9,29.88,East,98,0.0,0.0,88,0.00,,,0.10,Wunderground v.1.15,2013-09-01 23:37:00,
2013-09-01 19:38:00,79.8,75.9,29.88,East,98,0.0,1.0,88,0.00,,,0.10,Wunderground v.1.15,2013-09-01 23:38:00,
2013-09-01 19:39:00,79.7,75.8,29.87,East,98,0.0,1.0,88,0.00,,,0.10,Wunderground v.1.15,2013-09-01 23:39:00,
2013-09-01 19:40:00,79.6,75.7,29.87,East,98,0.0,0.0,88,0.00,,,0.10,Wunderground v.1.15,2013-09-01 23:40:00,
2013-09-01 19:42:00,79.4,75.5,29.87,East,98,0.0,0.0,88,0.00,,,0.10,Wunderground v.1.15,2013-09-01 23:42:00,
2013-09-01 19:43:00,79.4,75.5,29.87,East,98,0.0,0.0,88,0.00,,,0.10,Wunderground v.1.15,2013-09-01 23:43:00,
2013-09-01 19:44:00,79.3,75.4,29.87,East,98,0.0,0.0,88,0.00,,,0.10,Wunderground v.1.15,2013-09-01 23:44:00,
2013-09-01 19:45:00,79.2,75.3,29.87,East,98,0.0,0.0,88,0.00,,,0.10,Wunderground v.1.15,2013-09-01 23:45:00,
2013-09-01 19:47:00,79.0,75.1,29.87,East,99,0.0,0.0,88,0.00,,,0.10,Wunderground v.1.15,2013-09-01 23:47:00,
2013-09-01 19:48:00,79.0,75.1,29.87,East,98,0.0,0.0,88,0.00,,,0.10,Wunderground v.1.15,2013-09-01 23:48:00,
2013-09-01 19:49:00,78.9,75.4,29.87,East,98,0.0,0.0,89,0.00,,,0.10,Wunderground v.1.15,2013-09-01 23:49:00,
2013-09-01 19:50:00,78.8,75.3,29.87,East,98,0.0,0.0,89,0.00,,,0.10,Wunderground v.1.15,2013-09-01 23:50:00,
2013-09-01 19:52:00,78.7,75.2,29.87,East,98,0.0,0.0,89,0.00,,,0.10,Wunderground v.1.15,2013-09-01 23:52:00,
2013-09-01 19:53:00,78.6,75.1,29.87,East,98,0.0,0.0,89,0.00,,,0.10,Wunderground v.1.15,2013-09-01 23:53:00,
2013-09-01 19:54:00,78.5,75.0,29.87,East,98,0.0,0.0,89,0.00,,,0.10,Wunderground v.1.15,2013-09-01 23:54:00,
2013-09-01 19:55:00,78.5,75.0,29.87,East,98,0.0,0.0,89,0.00,,,0.10,Wunderground v.1.15,2013-09-01 23:55:00,
2013-09-01 19:56:00,78.4,74.9,29.87,East,98,0.0,0.0,89,0.00,,,0.10,Wunderground v.1.15,2013-09-01 23:56:00,
2013-09-01 19:57:00,78.3,74.8,29.87,East,98,0.0,0.0,89,0.00,,,0.10,Wunderground v.1.15,2013-09-01 23:57:00,
2013-09-01 19:58:00,78.2,74.7,29.86,East,98,0.0,0.0,89,0.00,,,0.10,Wunderground v.1.15,2013-09-01 23:58:00,
2013-09-01 20:00:00,78.1,74.6,29.86,East,98,0.0,0.0,89,0.00,,,0.10,Wunderground v.1.15,2013-09-02 00:00:00,
2013-09-01 20:01:00,78.0,74.8,29.86,East,98,0.0,0.0,90,0.00,,,0.10,Wunderground v.1.15,2013-09-02 00:01:00,
2013-09-01 20:02:00,78.0,74.8,29.86,East,98,0.0,0.0,90,0.00,,,0.10,Wunderground v.1.15,2013-09-02 00:02:00,
2013-09-01 20:03:00,77.9,74.7,29.87,East,98,0.0,0.0,90,0.00,,,0.10,Wunderground v.1.15,2013-09-02 00:03:00,
2013-09-01 20:04:00,77.9,75.1,29.87,East,98,0.0,0.0,91,0.00,,,0.10,Wunderground v.1.15,2013-09-02 00:04:00,
2013-09-01 20:05:00,77.7,74.9,29.87,East,98,0.0,0.0,91,0.00,,,0.10,Wunderground v.1.15,2013-09-02 00:05:00,
2013-09-01 20:06:00,77.7,74.9,29.87,East,98,0.0,0.0,91,0.00,,,0.10,Wunderground v.1.15,2013-09-02 00:06:00,
2013-09-01 20:07:00,77.6,74.8,29.87,East,98,0.0,0.0,91,0.00,,,0.10,Wunderground v.1.15,2013-09-02 00:07:00,
2013-09-01 20:08:00,77.5,75.0,29.87,East,98,0.0,0.0,92,0.00,,,0.10,Wunderground v.1.15,2013-09-02 00:08:00,
2013-09-01 20:10:00,77.5,75.0,29.86,East,98,0.0,0.0,92,0.00,,,0.10,Wunderground v.1.15,2013-09-02 00:10:00,
2013-09-01 20:11:00,77.4,74.9,29.86,East,98,0.0,0.0,92,0.00,,,0.10,Wunderground v.1.15,2013-09-02 00:11:00,
2013-09-01 20:12:00,77.3,74.8,29.86,East,98,0.0,0.0,92,0.00,,,0.10,Wunderground v.1.15,2013-09-02 00:12:00,
2013-09-01 20:13:00,77.2,74.7,29.87,East,98,0.0,0.0,92,0.00,,,0.10,Wunderground v.1.15,2013-09-02 00:13:00,
2013-09-01 20:15:00,77.1,74.6,29.87,East,99,0.0,0.0,92,0.00,,,0.10,Wunderground v.1.15,2013-09-02 00:15:00,
2013-09-01 20:16:00,77.1,74.6,29.87,East,98,0.0,0.0,92,0.00,,,0.10,Wunderground v.1.15,2013-09-02 00:16:00,
2013-09-01 20:17:00,77.0,74.5,29.87,East,98,0.0,0.0,92,0.00,,,0.10,Wunderground v.1.15,2013-09-02 00:17:00,
2013-09-01 20:19:00,76.9,74.7,29.87,East,98,0.0,0.0,93,0.00,,,0.10,Wunderground v.1.15,2013-09-02 00:19:00,
2013-09-01 20:20:00,76.8,74.6,29.88,East,98,0.0,0.0,93,0.00,,,0.10,Wunderground v.1.15,2013-09-02 00:20:00,
2013-09-01 20:21:00,76.7,74.5,29.88,East,98,0.0,0.0,93,0.00,,,0.10,Wunderground v.1.15,2013-09-02 00:21:00,
2013-09-01 20:22:00,76.6,74.4,29.88,East,98,0.0,0.0,93,0.00,,,0.10,Wunderground v.1.15,2013-09-02 00:22:00,
2013-09-01 20:24:00,76.5,74.3,29.88,East,98,0.0,0.0,93,0.00,,,0.10,Wunderground v.1.15,2013-09-02 00:24:00,
2013-09-01 20:25:00,76.5,74.3,29.88,East,98,0.0,0.0,93,0.00,,,0.10,Wunderground v.1.15,2013-09-02 00:25:00,
2013-09-01 20:26:00,76.4,74.2,29.88,East,98,0.0,0.0,93,0.00,,,0.10,Wunderground v.1.15,2013-09-02 00:26:00,
2013-09-01 20:27:00,76.3,74.4,29.88,East,98,0.0,0.0,94,0.00,,,0.10,Wunderground v.1.15,2013-09-02 00:27:00,
2013-09-01 20:29:00,76.2,74.3,29.88,East,98,0.0,0.0,94,0.00,,,0.10,Wunderground v.1.15,2013-09-02 00:29:00,
2013-09-01 20:30:00,76.2,74.3,29.88,East,98,0.0,0.0,94,0.00,,,0.10,Wunderground v.1.15,2013-09-02 00:30:00,
2013-09-01 20:31:00,76.1,74.2,29.88,East,98,0.0,0.0,94,0.00,,,0.10,Wunderground v.1.15,2013-09-02 00:31:00,
2013-09-01 20:32:00,76.1,74.2,29.88,East,98,0.0,0.0,94,0.00,,,0.10,Wunderground v.1.15,2013-09-02 00:32:00,
2013-09-01 20:34:00,76.0,74.1,29.89,East,98,0.0,0.0,94,0.00,,,0.10,Wunderground v.1.15,2013-09-02 00:34:00,
2013-09-01 20:35:00,75.9,74.4,29.89,East,98,0.0,0.0,95,0.00,,,0.10,Wunderground v.1.15,2013-09-02 00:35:00,
2013-09-01 20:36:00,75.9,74.4,29.89,East,98,0.0,0.0,95,0.00,,,0.10,Wunderground v.1.15,2013-09-02 00:36:00,
2013-09-01 20:37:00,75.8,74.3,29.89,East,98,0.0,0.0,95,0.00,,,0.10,Wunderground v.1.15,2013-09-02 00:37:00,
2013-09-01 20:38:00,75.8,74.3,29.89,East,98,0.0,0.0,95,0.00,,,0.10,Wunderground v.1.15,2013-09-02 00:38:00,
2013-09-01 20:39:00,75.8,74.3,29.89,East,98,0.0,0.0,95,0.00,,,0.10,Wunderground v.1.15,2013-09-02 00:39:00,
2013-09-01 20:40:00,75.7,74.2,29.89,East,98,0.0,0.0,95,0.00,,,0.10,Wunderground v.1.15,2013-09-02 00:40:00,
2013-09-01 20:41:00,75.7,74.2,29.89,East,98,0.0,0.0,95,0.00,,,0.10,Wunderground v.1.15,2013-09-02 00:41:00,
2013-09-01 20:43:00,75.7,74.2,29.89,East,98,0.0,0.0,95,0.00,,,0.10,Wunderground v.1.15,2013-09-02 00:43:00,
2013-09-01 20:44:00,75.6,74.1,29.89,East,98,0.0,0.0,95,0.00,,,0.10,Wunderground v.1.15,2013-09-02 00:44:00,
2013-09-01 20:45:00,75.6,74.1,29.89,East,98,0.0,0.0,95,0.00,,,0.10,Wunderground v.1.15,2013-09-02 00:45:00,
2013-09-01 20:47:00,75.5,74.0,29.90,East,98,0.0,0.0,95,0.00,,,0.10,Wunderground v.1.15,2013-09-02 00:47:00,
2013-09-01 20:49:00,75.5,74.0,29.90,East,98,0.0,0.0,95,0.00,,,0.10,Wunderground v.1.15,2013-09-02 00:49:00,
2013-09-01 20:50:00,75.5,74.0,29.90,WSW,252,0.0,0.0,95,0.00,,,0.10,Wunderground v.1.15,2013-09-02 00:50:00,
2013-09-01 20:52:00,75.5,74.0,29.90,WSW,252,0.0,0.0,95,0.00,,,0.10,Wunderground v.1.15,2013-09-02 00:52:00,
2013-09-01 20:53:00,75.5,74.0,29.90,WSW,253,0.0,0.0,95,0.00,,,0.10,Wunderground v.1.15,2013-09-02 00:53:00,
2013-09-01 20:54:00,75.4,74.2,29.90,WSW,253,0.0,0.0,96,0.00,,,0.10,Wunderground v.1.15,2013-09-02 00:54:00,
2013-09-01 20:55:00,75.4,74.2,29.90,WSW,253,0.0,0.0,96,0.00,,,0.10,Wunderground v.1.15,2013-09-02 00:55:00,
2013-09-01 20:57:00,75.5,74.3,29.90,SW,229,1.0,2.0,96,0.00,,,0.10,Wunderground v.1.15,2013-09-02 00:57:00,
2013-09-01 20:58:00,75.4,74.2,29.90,SW,229,0.0,2.0,96,0.00,,,0.10,Wunderground v.1.15,2013-09-02 00:58:00,
2013-09-01 20:59:00,75.4,74.2,29.90,SW,229,0.0,2.0,96,0.00,,,0.10,Wunderground v.1.15,2013-09-02 00:59:00,
2013-09-01 21:00:00,75.4,74.2,29.90,SW,229,0.0,0.0,96,0.00,,,0.10,Wunderground v.1.15,2013-09-02 01:00:00,
2013-09-01 21:01:00,75.4,74.2,29.90,SW,229,0.0,0.0,96,0.00,,,0.10,Wunderground v.1.15,2013-09-02 01:01:00,
2013-09-01 21:02:00,75.4,74.2,29.90,SW,229,0.0,0.0,96,0.00,,,0.10,Wunderground v.1.15,2013-09-02 01:02:00,
2013-09-01 21:03:00,75.3,74.1,29.90,SW,229,0.0,0.0,96,0.00,,,0.10,Wunderground v.1.15,2013-09-02 01:03:00,
2013-09-01 21:04:00,75.3,74.1,29.90,SW,229,0.0,1.0,96,0.00,,,0.10,Wunderground v.1.15,2013-09-02 01:04:00,
2013-09-01 21:05:00,75.3,74.1,29.90,SW,229,0.0,1.0,96,0.00,,,0.10,Wunderground v.1.15,2013-09-02 01:05:00,
2013-09-01 21:06:00,75.3,74.1,29.90,SW,229,0.0,1.0,96,0.00,,,0.10,Wunderground v.1.15,2013-09-02 01:06:00,
2013-09-01 21:07:00,75.3,74.1,29.90,SW,229,0.0,1.0,96,0.00,,,0.10,Wunderground v.1.15,2013-09-02 01:07:00,
2013-09-01 21:08:00,75.3,74.1,29.90,SW,229,0.0,1.0,96,0.00,,,0.10,Wunderground v.1.15,2013-09-02 01:08:00,
2013-09-01 21:09:00,75.2,74.0,29.90,SW,229,0.0,1.0,96,0.00,,,0.10,Wunderground v.1.15,2013-09-02 01:09:00,
2013-09-01 21:10:00,75.2,74.0,29.90,SW,229,0.0,0.0,96,0.00,,,0.10,Wunderground v.1.15,2013-09-02 01:10:00,
2013-09-01 21:11:00,75.2,74.0,29.90,SW,229,0.0,0.0,96,0.00,,,0.10,Wunderground v.1.15,2013-09-02 01:11:00,
2013-09-01 21:12:00,75.2,74.0,29.90,SW,229,0.0,0.0,96,0.00,,,0.10,Wunderground v.1.15,2013-09-02 01:12:00,
2013-09-01 21:13:00,75.2,74.0,29.90,SW,229,0.0,0.0,96,0.00,,,0.10,Wunderground v.1.15,2013-09-02 01:13:00,
2013-09-01 21:14:00,75.1,73.9,29.90,SW,229,0.0,0.0,96,0.00,,,0.10,Wunderground v.1.15,2013-09-02 01:14:00,
2013-09-01 21:15:00,75.1,73.9,29.90,SW,229,0.0,0.0,96,0.00,,,0.10,Wunderground v.1.15,2013-09-02 01:15:00,
2013-09-01 21:16:00,75.1,73.9,29.90,SW,229,0.0,0.0,96,0.00,,,0.10,Wunderground v.1.15,2013-09-02 01:16:00,
2013-09-01 21:17:00,75.1,73.9,29.90,SW,229,0.0,0.0,96,0.00,,,0.10,Wunderground v.1.15,2013-09-02 01:17:00,
2013-09-01 21:18:00,75.1,73.9,29.90,SW,229,0.0,0.0,96,0.00,,,0.10,Wunderground v.1.15,2013-09-02 01:18:00,
2013-09-01 21:19:00,75.0,73.8,29.90,SW,229,0.0,0.0,96,0.00,,,0.10,Wunderground v.1.15,2013-09-02 01:19:00,
2013-09-01 21:20:00,75.0,73.8,29.90,SW,229,0.0,0.0,96,0.00,,,0.10,Wunderground v.1.15,2013-09-02 01:20:00,
2013-09-01 21:21:00,75.0,73.8,29.90,SW,229,0.0,0.0,96,0.00,,,0.10,Wunderground v.1.15,2013-09-02 01:21:00,
2013-09-01 21:22:00,75.0,73.8,29.90,SW,229,0.0,0.0,96,0.00,,,0.10,Wunderground v.1.15,2013-09-02 01:22:00,
2013-09-01 21:23:00,75.0,73.8,29.90,SW,229,0.0,0.0,96,0.00,,,0.10,Wunderground v.1.15,2013-09-02 01:23:00,
2013-09-01 21:24:00,75.0,73.8,29.91,SW,229,0.0,0.0,96,0.00,,,0.10,Wunderground v.1.15,2013-09-02 01:24:00,
2013-09-01 21:25:00,75.0,73.8,29.91,SW,229,0.0,0.0,96,0.00,,,0.10,Wunderground v.1.15,2013-09-02 01:25:00,
2013-09-01 21:26:00,74.9,73.7,29.91,SW,229,0.0,0.0,96,0.00,,,0.10,Wunderground v.1.15,2013-09-02 01:26:00,
2013-09-01 21:27:00,74.9,73.7,29.91,SW,229,0.0,0.0,96,0.00,,,0.10,Wunderground v.1.15,2013-09-02 01:27:00,
2013-09-01 21:28:00,74.9,73.7,29.91,SW,229,0.0,0.0,96,0.00,,,0.10,Wunderground v.1.15,2013-09-02 01:28:00,
2013-09-01 21:29:00,74.8,73.6,29.91,SW,229,0.0,0.0,96,0.00,,,0.10,Wunderground v.1.15,2013-09-02 01:29:00,
2013-09-01 21:30:00,74.8,73.6,29.91,SW,229,0.0,0.0,96,0.00,,,0.10,Wunderground v.1.15,2013-09-02 01:30:00,
2013-09-01 21:31:00,74.8,73.6,29.91,SW,229,0.0,0.0,96,0.00,,,0.10,Wunderground v.1.15,2013-09-02 01:31:00,
2013-09-01 21:32:00,74.8,73.6,29.91,SW,229,0.0,0.0,96,0.00,,,0.10,Wunderground v.1.15,2013-09-02 01:32:00,
2013-09-01 21:33:00,74.8,73.6,29.91,SW,229,0.0,0.0,96,0.00,,,0.10,Wunderground v.1.15,2013-09-02 01:33:00,
2013-09-01 21:34:00,74.7,73.5,29.91,SW,229,0.0,0.0,96,0.00,,,0.10,Wunderground v.1.15,2013-09-02 01:34:00,
2013-09-01 21:35:00,74.7,73.5,29.91,SW,229,0.0,0.0,96,0.00,,,0.10,Wunderground v.1.15,2013-09-02 01:35:00,
2013-09-01 21:37:00,74.7,73.5,29.91,SW,229,0.0,0.0,96,0.00,,,0.10,Wunderground v.1.15,2013-09-02 01:37:00,
2013-09-01 21:38:00,74.7,73.5,29.91,SW,229,0.0,0.0,96,0.00,,,0.10,Wunderground v.1.15,2013-09-02 01:38:00,
2013-09-01 21:39:00,74.7,73.5,29.91,SW,229,0.0,0.0,96,0.00,,,0.10,Wunderground v.1.15,2013-09-02 01:39:00,
2013-09-01 21:40:00,74.7,73.5,29.91,SW,229,0.0,0.0,96,0.00,,,0.10,Wunderground v.1.15,2013-09-02 01:40:00,
2013-09-01 21:42:00,74.7,73.5,29.91,SW,229,0.0,0.0,96,0.00,,,0.10,Wunderground v.1.15,2013-09-02 01:42:00,
2013-09-01 21:43:00,74.6,73.4,29.91,SW,229,0.0,0.0,96,0.00,,,0.10,Wunderground v.1.15,2013-09-02 01:43:00,
2013-09-01 21:44:00,74.6,73.4,29.91,SW,229,0.0,0.0,96,0.00,,,0.10,Wunderground v.1.15,2013-09-02 01:44:00,
2013-09-01 21:45:00,74.6,73.4,29.91,SW,229,0.0,0.0,96,0.00,,,0.10,Wunderground v.1.15,2013-09-02 01:45:00,
2013-09-01 21:47:00,74.5,73.3,29.91,SW,229,0.0,0.0,96,0.00,,,0.10,Wunderground v.1.15,2013-09-02 01:47:00,
2013-09-01 21:48:00,74.4,73.2,29.91,SW,229,0.0,0.0,96,0.00,,,0.10,Wunderground v.1.15,2013-09-02 01:48:00,
2013-09-01 21:49:00,74.4,73.2,29.91,SW,229,0.0,0.0,96,0.00,,,0.10,Wunderground v.1.15,2013-09-02 01:49:00,
2013-09-01 21:50:00,74.4,73.2,29.91,SW,229,0.0,0.0,96,0.00,,,0.10,Wunderground v.1.15,2013-09-02 01:50:00,
2013-09-01 21:53:00,74.3,73.1,29.91,SW,229,0.0,0.0,96,0.00,,,0.10,Wunderground v.1.15,2013-09-02 01:53:00,
2013-09-01 21:55:00,74.3,73.4,29.91,SW,229,0.0,0.0,97,0.00,,,0.10,Wunderground v.1.15,2013-09-02 01:55:00,
2013-09-01 21:58:00,74.2,73.3,29.90,SW,229,0.0,0.0,97,0.00,,,0.10,Wunderground v.1.15,2013-09-02 01:58:00,
2013-09-01 21:59:00,74.2,73.3,29.90,SW,229,0.0,0.0,97,0.00,,,0.10,Wunderground v.1.15,2013-09-02 01:59:00,
2013-09-01 22:00:00,74.2,73.3,29.91,SW,229,0.0,0.0,97,0.00,,,0.10,Wunderground v.1.15,2013-09-02 02:00:00,
2013-09-01 22:03:00,74.2,73.3,29.91,SW,229,0.0,0.0,97,0.00,,,0.10,Wunderground v.1.15,2013-09-02 02:03:00,
2013-09-01 22:04:00,74.1,73.2,29.91,SW,229,0.0,0.0,97,0.00,,,0.10,Wunderground v.1.15,2013-09-02 02:04:00,
2013-09-01 22:05:00,74.1,73.2,29.91,SW,229,0.0,0.0,97,0.00,,,0.10,Wunderground v.1.15,2013-09-02 02:05:00,
2013-09-01 22:08:00,74.1,73.2,29.91,SW,229,0.0,0.0,97,0.00,,,0.10,Wunderground v.1.15,2013-09-02 02:08:00,
2013-09-01 22:09:00,74.1,73.2,29.91,SW,229,0.0,0.0,97,0.00,,,0.10,Wunderground v.1.15,2013-09-02 02:09:00,
2013-09-01 22:10:00,74.1,73.2,29.91,SW,229,0.0,0.0,97,0.00,,,0.10,Wunderground v.1.15,2013-09-02 02:10:00,
2013-09-01 22:11:00,74.1,73.2,29.91,SW,229,0.0,0.0,97,0.00,,,0.10,Wunderground v.1.15,2013-09-02 02:11:00,
2013-09-01 22:13:00,74.0,73.1,29.91,SW,229,0.0,0.0,97,0.00,,,0.10,Wunderground v.1.15,2013-09-02 02:13:00,
2013-09-01 22:14:00,74.0,73.1,29.91,SW,229,0.0,0.0,97,0.00,,,0.10,Wunderground v.1.15,2013-09-02 02:14:00,
2013-09-01 22:15:00,74.0,73.1,29.91,SW,229,0.0,0.0,97,0.00,,,0.10,Wunderground v.1.15,2013-09-02 02:15:00,
2013-09-01 22:16:00,74.0,73.1,29.91,SW,229,0.0,0.0,97,0.00,,,0.10,Wunderground v.1.15,2013-09-02 02:16:00,
2013-09-01 22:18:00,74.0,73.1,29.91,SW,229,0.0,0.0,97,0.00,,,0.10,Wunderground v.1.15,2013-09-02 02:18:00,
2013-09-01 22:19:00,74.0,73.1,29.91,SW,229,0.0,0.0,97,0.00,,,0.10,Wunderground v.1.15,2013-09-02 02:19:00,
2013-09-01 22:20:00,73.9,73.0,29.91,SW,229,0.0,0.0,97,0.00,,,0.10,Wunderground v.1.15,2013-09-02 02:20:00,
2013-09-01 22:21:00,73.9,73.0,29.91,SW,229,0.0,0.0,97,0.00,,,0.10,Wunderground v.1.15,2013-09-02 02:21:00,
2013-09-01 22:23:00,73.8,72.9,29.91,SW,229,0.0,0.0,97,0.00,,,0.10,Wunderground v.1.15,2013-09-02 02:23:00,
2013-09-01 22:24:00,73.8,72.9,29.91,SW,229,0.0,0.0,97,0.00,,,0.10,Wunderground v.1.15,2013-09-02 02:24:00,
2013-09-01 22:25:00,73.8,72.9,29.91,SW,229,0.0,0.0,97,0.00,,,0.10,Wunderground v.1.15,2013-09-02 02:25:00,
2013-09-01 22:26:00,73.8,72.9,29.91,SW,229,0.0,0.0,97,0.00,,,0.10,Wunderground v.1.15,2013-09-02 02:26:00,
2013-09-01 22:28:00,73.8,72.9,29.91,SW,229,0.0,0.0,97,0.00,,,0.10,Wunderground v.1.15,2013-09-02 02:28:00,
2013-09-01 22:29:00,73.7,72.8,29.91,SW,229,0.0,0.0,97,0.00,,,0.10,Wunderground v.1.15,2013-09-02 02:29:00,
2013-09-01 22:30:00,73.7,72.8,29.91,SW,229,0.0,0.0,97,0.00,,,0.10,Wunderground v.1.15,2013-09-02 02:30:00,
2013-09-01 22:31:00,73.7,72.8,29.91,SW,229,0.0,0.0,97,0.00,,,0.10,Wunderground v.1.15,2013-09-02 02:31:00,
2013-09-01 22:33:00,73.8,72.9,29.91,SW,229,0.0,0.0,97,0.00,,,0.10,Wunderground v.1.15,2013-09-02 02:33:00,
2013-09-01 22:34:00,73.8,72.9,29.92,SW,229,0.0,0.0,97,0.00,,,0.10,Wunderground v.1.15,2013-09-02 02:34:00,
2013-09-01 22:35:00,73.8,72.9,29.92,SW,229,0.0,0.0,97,0.00,,,0.10,Wunderground v.1.15,2013-09-02 02:35:00,
2013-09-01 22:36:00,73.8,72.9,29.92,SW,229,0.0,0.0,97,0.00,,,0.10,Wunderground v.1.15,2013-09-02 02:36:00,
2013-09-01 22:38:00,73.7,72.8,29.92,SW,229,0.0,0.0,97,0.00,,,0.10,Wunderground v.1.15,2013-09-02 02:38:00,
2013-09-01 22:39:00,73.7,72.8,29.92,SW,229,0.0,0.0,97,0.00,,,0.10,Wunderground v.1.15,2013-09-02 02:39:00,
2013-09-01 22:40:00,73.6,72.7,29.92,SW,229,0.0,0.0,97,0.00,,,0.10,Wunderground v.1.15,2013-09-02 02:40:00,
2013-09-01 22:41:00,73.7,72.8,29.92,SW,229,0.0,0.0,97,0.00,,,0.10,Wunderground v.1.15,2013-09-02 02:41:00,
2013-09-01 22:43:00,73.7,72.8,29.92,SW,229,0.0,0.0,97,0.00,,,0.10,Wunderground v.1.15,2013-09-02 02:43:00,
2013-09-01 22:45:00,73.7,72.8,29.92,SW,229,0.0,0.0,97,0.00,,,0.10,Wunderground v.1.15,2013-09-02 02:45:00,
2013-09-01 22:46:00,73.7,72.8,29.92,SW,229,0.0,0.0,97,0.00,,,0.10,Wunderground v.1.15,2013-09-02 02:46:00,
2013-09-01 22:48:00,73.8,72.9,29.92,SW,229,0.0,0.0,97,0.00,,,0.10,Wunderground v.1.15,2013-09-02 02:48:00,
2013-09-01 22:50:00,73.8,72.9,29.92,SW,229,0.0,0.0,97,0.00,,,0.10,Wunderground v.1.15,2013-09-02 02:50:00,
2013-09-01 22:51:00,73.7,72.8,29.92,SW,229,0.0,0.0,97,0.00,,,0.10,Wunderground v.1.15,2013-09-02 02:51:00,
2013-09-01 22:53:00,73.7,72.8,29.92,SW,229,0.0,0.0,97,0.00,,,0.10,Wunderground v.1.15,2013-09-02 02:53:00,
2013-09-01 22:55:00,73.7,72.8,29.92,SW,229,0.0,0.0,97,0.00,,,0.10,Wunderground v.1.15,2013-09-02 02:55:00,
2013-09-01 22:56:00,73.7,72.8,29.92,SW,229,0.0,0.0,97,0.00,,,0.10,Wunderground v.1.15,2013-09-02 02:56:00,
2013-09-01 22:58:00,73.7,72.8,29.92,SW,229,0.0,0.0,97,0.00,,,0.10,Wunderground v.1.15,2013-09-02 02:58:00,
2013-09-01 23:00:00,73.7,72.8,29.92,SW,229,0.0,0.0,97,0.00,,,0.10,Wunderground v.1.15,2013-09-02 03:00:00,
2013-09-01 23:01:00,73.7,72.8,29.92,SW,229,0.0,0.0,97,0.00,,,0.10,Wunderground v.1.15,2013-09-02 03:01:00,
2013-09-01 23:03:00,73.6,72.7,29.92,SW,229,0.0,0.0,97,0.00,,,0.10,Wunderground v.1.15,2013-09-02 03:03:00,
2013-09-01 23:05:00,73.6,72.7,29.92,SW,229,0.0,0.0,97,0.00,,,0.10,Wunderground v.1.15,2013-09-02 03:05:00,
2013-09-01 23:06:00,73.6,72.7,29.92,SW,229,0.0,0.0,97,0.00,,,0.10,Wunderground v.1.15,2013-09-02 03:06:00,
2013-09-01 23:08:00,73.6,72.7,29.92,SW,229,0.0,0.0,97,0.00,,,0.10,Wunderground v.1.15,2013-09-02 03:08:00,
2013-09-01 23:10:00,73.5,72.6,29.92,SW,229,0.0,0.0,97,0.00,,,0.10,Wunderground v.1.15,2013-09-02 03:10:00,
2013-09-01 23:11:00,73.5,72.6,29.92,SW,229,0.0,0.0,97,0.00,,,0.10,Wunderground v.1.15,2013-09-02 03:11:00,
2013-09-01 23:12:00,73.5,72.6,29.91,SW,229,0.0,0.0,97,0.00,,,0.10,Wunderground v.1.15,2013-09-02 03:12:00,
2013-09-01 23:13:00,73.5,72.6,29.91,SW,229,0.0,0.0,97,0.00,,,0.10,Wunderground v.1.15,2013-09-02 03:13:00,
2013-09-01 23:16:00,73.4,72.5,29.91,SW,229,0.0,0.0,97,0.00,,,0.10,Wunderground v.1.15,2013-09-02 03:16:00,
2013-09-01 23:17:00,73.4,72.5,29.91,SW,229,0.0,0.0,97,0.00,,,0.10,Wunderground v.1.15,2013-09-02 03:17:00,
2013-09-01 23:18:00,73.4,72.5,29.91,SW,229,0.0,0.0,97,0.00,,,0.10,Wunderground v.1.15,2013-09-02 03:18:00,
2013-09-01 23:19:00,73.4,72.5,29.91,SW,229,0.0,0.0,97,0.00,,,0.10,Wunderground v.1.15,2013-09-02 03:19:00,
2013-09-01 23:21:00,73.5,72.6,29.91,SW,229,0.0,0.0,97,0.00,,,0.10,Wunderground v.1.15,2013-09-02 03:21:00,
2013-09-01 23:22:00,73.4,72.5,29.91,SW,229,0.0,0.0,97,0.00,,,0.10,Wunderground v.1.15,2013-09-02 03:22:00,
2013-09-01 23:23:00,73.4,72.5,29.91,SW,229,0.0,0.0,97,0.00,,,0.10,Wunderground v.1.15,2013-09-02 03:23:00,
2013-09-01 23:24:00,73.4,72.5,29.91,SW,229,0.0,0.0,97,0.00,,,0.10,Wunderground v.1.15,2013-09-02 03:24:00,
2013-09-01 23:26:00,73.3,72.4,29.91,SW,229,0.0,0.0,97,0.00,,,0.10,Wunderground v.1.15,2013-09-02 03:26:00,
2013-09-01 23:27:00,73.3,72.4,29.91,SW,229,0.0,0.0,97,0.00,,,0.10,Wunderground v.1.15,2013-09-02 03:27:00,
2013-09-01 23:28:00,73.3,72.4,29.91,SW,229,0.0,0.0,97,0.00,,,0.10,Wunderground v.1.15,2013-09-02 03:28:00,
2013-09-01 23:29:00,73.3,72.4,29.91,SW,229,0.0,0.0,97,0.00,,,0.10,Wunderground v.1.15,2013-09-02 03:29:00,
2013-09-01 23:31:00,73.3,72.4,29.91,SW,229,0.0,0.0,97,0.00,,,0.10,Wunderground v.1.15,2013-09-02 03:31:00,
2013-09-01 23:33:00,73.2,72.3,29.91,SW,229,0.0,0.0,97,0.00,,,0.10,Wunderground v.1.15,2013-09-02 03:33:00,
2013-09-01 23:34:00,73.2,72.3,29.91,SW,229,0.0,0.0,97,0.00,,,0.10,Wunderground v.1.15,2013-09-02 03:34:00,
2013-09-01 23:36:00,73.1,72.2,29.91,SW,229,0.0,0.0,97,0.00,,,0.10,Wunderground v.1.15,2013-09-02 03:36:00,
2013-09-01 23:38:00,73.1,72.2,29.91,SW,229,0.0,0.0,97,0.00,,,0.10,Wunderground v.1.15,2013-09-02 03:38:00,
2013-09-01 23:39:00,73.1,72.2,29.91,SW,229,0.0,0.0,97,0.00,,,0.10,Wunderground v.1.15,2013-09-02 03:39:00,
2013-09-01 23:41:00,73.0,72.1,29.91,SW,229,0.0,0.0,97,0.00,,,0.10,Wunderground v.1.15,2013-09-02 03:41:00,
2013-09-01 23:43:00,73.0,72.4,29.91,SW,229,0.0,0.0,98,0.00,,,0.10,Wunderground v.1.15,2013-09-02 03:43:00,
2013-09-01 23:44:00,73.0,72.4,29.91,SW,229,0.0,0.0,98,0.00,,,0.10,Wunderground v.1.15,2013-09-02 03:44:00,
2013-09-01 23:45:00,73.0,72.4,29.91,SW,229,0.0,0.0,98,0.00,,,0.10,Wunderground v.1.15,2013-09-02 03:45:00,
2013-09-01 23:46:00,73.0,72.1,29.91,SW,229,0.0,0.0,97,0.00,,,0.10,Wunderground v.1.15,2013-09-02 03:46:00,
2013-09-01 23:48:00,72.9,72.0,29.91,SW,229,0.0,0.0,97,0.00,,,0.10,Wunderground v.1.15,2013-09-02 03:48:00,
2013-09-01 23:49:00,72.8,71.9,29.91,SW,229,0.0,0.0,97,0.00,,,0.10,Wunderground v.1.15,2013-09-02 03:49:00,
2013-09-01 23:50:00,72.8,71.9,29.91,SW,229,0.0,0.0,97,0.00,,,0.10,Wunderground v.1.15,2013-09-02 03:50:00,
2013-09-01 23:51:00,72.8,71.9,29.91,SW,229,0.0,0.0,97,0.00,,,0.10,Wunderground v.1.15,2013-09-02 03:51:00,
2013-09-01 23:53:00,72.7,71.8,29.91,SW,229,0.0,0.0,97,0.00,,,0.10,Wunderground v.1.15,2013-09-02 03:53:00,
2013-09-01 23:54:00,72.7,71.8,29.91,SW,229,0.0,0.0,97,0.00,,,0.10,Wunderground v.1.15,2013-09-02 03:54:00,
2013-09-01 23:55:00,72.7,71.8,29.91,SW,229,0.0,0.0,97,0.00,,,0.10,Wunderground v.1.15,2013-09-02 03:55:00,
2013-09-01 23:56:00,72.7,71.8,29.91,SW,229,0.0,0.0,97,0.00,,,0.10,Wunderground v.1.15,2013-09-02 03:56:00,
2013-09-01 23:58:00,72.7,72.1,29.91,SW,229,0.0,0.0,98,0.00,,,0.10,Wunderground v.1.15,2013-09-02 03:58:00,
2013-09-01 23:59:00,72.7,72.1,29.91,SW,229,0.0,0.0,98,0.00,,,0.10,Wunderground v.1.15,2013-09-02 03:59:00,